GFSNE_2pvu_pres_000.txt.gz
Presure
222 213 245 134 238 188 229 211 201 199 201 199 209 209 206 208 214 216 217 207 228 215 203 202 206 209 217 224 229 255 239 231 228 226 219 231 226 247
195 272 252 236 226 207 211 215 200 227 211 192 198 221 212 210 215 202 211 231 207 210 201 218 214 215 227 224 233 249 235 234 228 216 231 238 238 253
276 256 271 254 215 222 233 192 203 190 228 241 241 218 214 212 200 217 221 218 212 202 207 213 212 218 231 226 246 241 231 231 221 221 244 231 247 269
161 287 253 235 250 221 230 256 220 213 189 238 234 218 207 204 215 215 227 218 204 209 208 214 219 237 235 229 253 237 235 236 233 232 249 242 263 293
318 296 268 262 248 232 236 268 259 248 238 223 223 219 217 206 224 236 213 204 225 230 231 214 219 240 221 232 244 238 239 235 225 250 247 254 267 388
238 298 272 253 249 236 235 240 241 237 227 221 235 218 209 225 209 225 207 213 223 218 216 214 239 238 234 248 238 239 237 233 248 229 247 263 312 339
270 294 271 253 241 241 234 235 228 233 225 233 221 222 231 230 216 222 181 205 223 216 217 235 232 241 228 249 244 235 239 233 251 246 259 272 350 316
309 287 262 259 239 247 223 239 224 228 221 235 227 224 227 224 217 215 223 218 212 213 221 206 237 241 231 243 238 240 228 248 233 245 256 373 331 305
310 281 263 258 242 231 232 245 230 228 227 234 220 213 212 210 212 209 210 219 221 217 221 232 234 229 241 244 232 234 237 240 243 263 294 348 324 300
305 281 264 261 235 246 236 240 234 227 215 228 226 212 221 215 205 216 228 223 223 224 239 242 232 229 242 240 239 225 241 227 243 268 332 330 311 374
247 288 266 261 255 225 248 228 236 226 226 235 204 215 225 219 212 215 223 224 213 210 238 244 228 242 240 235 241 240 230 246 254 276 338 323 308 377
301 270 261 272 239 232 246 261 238 241 243 236 213 239 220 220 226 223 236 226 220 246 243 230 244 242 238 241 237 233 227 244 260 348 328 320 355 340
291 272 262 247 248 240 237 240 240 223 226 223 230 231 222 217 215 222 233 230 239 241 234 238 244 238 233 237 247 228 245 262 289 341 337 348 358 337
316 302 262 253 250 253 251 242 218 230 214 218 234 214 214 227 234 226 222 229 243 231 236 247 237 236 232 243 229 241 250 283 360 331 324 363 342 313
334 303 289 275 266 259 260 245 225 225 219 221 230 228 229 222 237 232 242 234 236 224 249 240 235 227 238 241 233 255 255 308 332 335 345 349 375 303
326 309 289 275 271 265 259 246 229 240 225 243 213 223 240 232 235 222 247 227 238 226 242 245 228 229 244 239 237 247 291 341 339 352 324 336 332 346
318 303 288 282 278 260 250 250 231 231 234 222 231 225 238 227 241 249 227 232 238 231 250 222 226 239 243 233 247 265 355 325 347 372 302 350 347 332
288 294 291 283 270 269 261 256 240 251 243 234 226 228 247 248 243 227 234 237 246 255 232 231 226 238 230 253 238 308 343 353 409 363 303 332 324 322
293 284 280 273 270 266 266 265 267 245 242 255 262 251 238 237 226 236 239 231 249 237 232 228 239 229 249 248 272 354 334 429 380 326 326 323 328 322
292 269 279 279 260 257 286 267 249 252 243 237 246 238 231 229 238 247 248 255 237 223 236 234 227 250 246 271 337 330 407 389 344 322 323 313 306 313
276 278 274 270 260 259 249 242 251 252 247 247 244 229 240 242 240 248 248 245 229 231 236 226 226 234 252 300 347 421 390 342 321 322 310 304 314 313
289 284 275 262 248 251 238 237 241 250 249 241 224 231 233 250 233 239 240 240 224 228 228 226 230 238 276 355 363 435 341 322 312 301 318 323 324 323
272 277 269 255 243 238 239 243 235 228 240 226 232 241 235 238 240 238 234 225 226 236 238 248 252 270 323 338 418 324 313 310 317 332 329 320 327 332

GFSNE_2pvu_pres_003.txt.gz
Presure
173 168 184 205 214 208 208 209 239 219 289 251 263 231 215 235 230 213 216 210 227 220 214 213 212 206 227 203 211 220 215 211 234 247 256 242 235 236
182 181 189 191 187 204 216 230 246 253 270 256 238 227 215 224 221 234 243 225 222 217 213 205 206 206 220 203 211 216 221 229 241 236 250 245 231 241
178 201 190 196 198 191 201 221 251 247 286 248 236 222 251 223 230 227 221 215 209 220 222 219 233 228 205 221 221 234 213 237 241 241 251 242 243 238
186 180 189 189 193 204 197 205 281 300 274 243 237 218 237 246 211 226 215 207 213 207 209 226 222 216 208 206 209 237 228 236 245 242 247 240 245 240
200 194 203 203 195 197 206 204 320 298 267 248 235 220 228 228 227 221 216 213 218 227 219 229 214 212 208 219 218 212 236 253 227 255 241 242 231 248
183 198 194 200 187 206 216 203 314 270 258 245 242 234 233 231 234 223 223 213 224 214 227 220 219 217 211 225 230 241 248 225 261 240 241 235 242 251
211 189 203 196 198 205 141 213 312 291 267 253 239 231 223 234 230 227 233 228 231 228 214 215 225 230 222 229 245 251 242 232 248 246 233 235 248 257
195 188 194 197 126 194 199 205 307 260 261 255 225 232 229 230 230 222 221 227 224 222 205 222 219 218 224 235 231 249 225 258 247 233 236 247 250 265
190 206 143 211 201 241 213 319 306 283 258 257 226 236 232 223 224 227 225 217 211 219 214 225 226 220 247 238 240 243 240 252 235 231 218 245 254 280
196 200 187 211 193 337 216 332 230 280 263 250 230 238 214 220 215 219 226 226 223 231 225 202 224 215 238 248 248 235 239 253 227 233 244 253 258 318
206 215 222 211 238 380 213 240 302 272 264 240 242 236 230 212 224 227 209 213 226 217 226 237 233 224 225 253 233 228 242 223 233 238 236 252 268 340
233 319 218 361 381 364 245 316 300 272 256 242 223 228 224 237 223 220 223 221 217 223 224 229 232 241 244 239 238 244 258 231 226 241 253 270 351 354
345 269 393 355 357 250 296 301 288 264 248 245 246 229 222 229 222 212 222 221 218 223 209 223 228 238 251 233 249 259 232 236 241 254 262 275 340 372
371 361 370 375 259 341 309 289 283 268 247 241 235 241 227 225 224 216 222 222 223 234 221 228 236 196 230 235 259 240 234 241 248 252 269 347 396 355
367 372 331 253 321 326 306 299 281 269 251 235 236 219 227 226 223 216 224 232 213 225 246 222 259 241 235 240 245 228 239 240 253 256 364 408 371 336
423 263 259 343 321 324 302 290 280 274 251 238 240 232 231 226 216 222 222 224 240 229 254 250 241 236 252 247 237 237 244 244 250 342 348 387 343 326
264 402 347 342 301 302 307 288 278 282 260 250 247 241 238 232 225 228 223 229 241 256 246 241 250 264 244 238 237 238 243 264 287 427 402 346 327 332
347 375 328 303 298 303 289 277 279 273 267 260 247 238 234 231 236 229 231 257 249 240 239 259 248 241 236 229 239 247 251 267 391 378 343 327 332 319
398 332 313 295 302 304 285 282 273 278 254 246 252 263 249 258 267 259 238 235 245 245 259 249 245 238 227 235 246 241 251 444 368 336 325 323 317 327
398 338 299 288 274 281 268 259 253 256 272 254 241 232 250 245 234 236 231 238 231 249 239 244 239 234 235 249 271 252 320 356 335 328 346 346 332 316
378 324 295 281 273 265 265 270 261 250 245 265 248 239 237 236 234 244 238 241 257 237 242 240 234 240 242 245 241 269 358 336 310 326 329 331 319 341
330 303 298 286 286 253 253 260 246 248 250 238 240 247 246 241 232 243 228 257 238 239 234 237 230 241 253 248 268 350 333 325 320 322 316 323 326 336
341 325 298 284 264 277 250 249 249 240 237 238 230 228 230 244 238 247 250 243 234 229 238 230 240 243 259 258 348 327 317 321 339 349 333 329 332 327

GFSNE_2pvu_pres_006.txt.gz
Presure
192 115 138 198 185 157 185 193 185 202 191 197 183 204 193 193 203 289 267 255 235 254 228 228 223 229 226 213 213 215 228 212 225 219 229 224 235 256
202 174 193 143 192 176 187 181 193 195 191 185 199 143 198 204 214 206 271 254 234 243 237 239 223 223 215 215 216 216 213 226 222 227 224 215 239 252
183 192 193 185 194 183 185 190 191 191 194 178 155 189 187 202 217 203 266 258 240 228 219 231 228 226 227 224 224 206 226 211 222 216 216 245 256 254
193 174 170 180 182 186 192 192 186 189 191 174 121 203 201 194 226 203 260 251 244 229 219 220 226 218 224 237 233 233 230 213 221 243 226 232 251 241
172 195 201 197 192 192 181 190 175 179 182 202 203 176 201 197 262 232 255 232 248 230 220 234 222 221 227 218 226 213 221 240 217 227 248 247 244 242
195 185 197 193 193 202 184 173 174 202 208 216 198 199 201 182 218 260 254 254 246 228 221 224 218 223 228 228 228 220 232 233 224 229 246 253 237 235
204 201 181 178 200 169 191 205 198 211 220 219 217 224 215 201 273 259 247 248 240 231 190 224 229 220 226 228 217 230 220 220 231 233 246 248 238 258
214 197 209 214 215 201 187 209 212 213 197 242 208 245 199 290 274 243 247 243 235 230 233 213 217 229 229 219 219 219 217 229 229 239 252 233 238 260
220 216 214 183 212 214 222 229 222 210 193 200 229 242 300 282 260 256 241 244 233 227 234 232 224 224 233 221 224 218 230 237 238 248 254 238 242 261
194 204 183 218 212 264 206 221 214 208 219 280 295 326 300 279 226 250 243 237 224 229 216 226 231 226 214 226 218 232 226 228 238 250 249 239 266 236
232 238 253 254 240 256 252 218 224 333 319 307 342 325 287 267 262 245 240 236 227 218 216 221 235 226 222 226 217 226 229 236 257 243 247 267 246 256
302 367 284 371 362 358 351 345 335 322 370 353 331 315 270 262 262 249 239 227 224 219 223 222 225 224 230 227 215 231 238 249 249 244 267 247 254 238
290 349 309 257 361 355 346 337 324 382 349 330 295 291 272 256 250 228 233 229 222 223 236 236 233 230 224 220 227 238 247 249 241 263 243 250 239 256
351 400 398 386 370 364 365 292 378 364 327 277 296 277 263 259 241 228 242 217 237 237 227 226 227 223 226 228 239 246 257 242 265 255 249 251 254 265
308 276 275 274 355 297 259 245 355 349 243 294 282 265 250 255 243 230 229 234 224 225 219 228 229 217 226 241 246 250 248 270 254 248 252 258 266 272
316 324 346 353 455 437 353 359 262 279 303 290 269 267 257 238 237 237 234 232 227 225 231 234 233 228 234 250 245 245 259 263 249 250 262 269 280 341
341 296 340 313 379 334 283 261 334 307 300 296 264 258 258 239 232 227 232 228 192 235 236 231 239 248 254 242 245 259 254 250 252 254 265 287 341 331
417 408 289 425 286 276 260 304 316 312 300 288 270 268 253 246 241 244 246 242 238 234 241 255 252 242 239 245 255 245 249 251 250 266 275 341 344 337
373 441 292 275 275 259 338 316 292 296 292 286 275 264 258 262 257 250 253 252 246 254 252 236 241 241 250 257 245 248 251 256 266 277 339 339 334 334
338 421 385 337 353 320 315 291 290 278 278 265 245 255 252 252 245 261 244 239 247 240 242 242 250 254 251 246 245 260 253 265 285 344 345 345 330 323
322 404 356 350 318 303 293 295 281 285 275 267 251 241 248 250 255 244 243 247 226 233 237 248 251 256 240 242 235 250 271 296 346 346 327 343 331 333
307 400 346 330 309 303 295 273 263 257 247 258 260 242 240 247 253 236 228 232 234 229 244 250 242 241 248 259 254 273 289 346 360 358 348 319 323 338
298 392 354 315 292 293 270 263 262 253 259 256 238 247 255 227 228 228 236 237 230 236 246 236 234 246 255 256 274 290 360 366 437 344 351 381 430 413

GFSNE_2pvu_pres_009.txt.gz
Presure
88 194 187 205 241 195 173 191 189 176 186 196 177 190 169 193 173 199 153 205 201 216 209 212 197 204 253 247 240 226 228 236 233 221 226 225 227 217
189 202 181 200 222 202 148 184 126 201 157 192 174 192 188 163 183 177 204 204 202 207 219 204 213 242 256 251 242 232 230 230 226 233 219 229 237 229
201 169 201 259 202 161 217 190 181 187 185 198 185 184 175 166 186 167 191 200 196 198 235 206 207 264 251 245 236 232 229 225 227 227 231 232 229 229
197 166 201 187 215 174 173 199 179 184 193 176 207 210 209 205 200 205 204 213 208 190 195 217 246 263 252 242 234 232 227 225 232 224 236 226 219 228
183 209 201 189 192 191 192 177 195 169 188 207 202 190 172 178 201 196 216 217 187 197 204 269 264 262 251 240 232 230 229 228 218 229 229 231 221 222
199 196 184 161 191 181 203 177 191 172 208 201 199 170 192 215 211 218 232 213 209 210 284 266 256 253 245 240 237 231 233 235 232 231 219 226 235 229
230 201 195 177 191 187 194 202 193 202 216 177 219 189 212 243 241 227 227 205 211 268 281 262 251 251 249 232 238 239 233 224 229 234 236 231 226 237
202 206 221 214 174 228 191 186 241 173 182 244 254 254 240 197 185 192 245 214 271 255 276 258 248 238 238 238 229 237 218 218 228 233 232 228 233 219
400 377 289 275 259 193 263 382 376 372 183 291 249 234 329 323 337 267 215 261 268 255 263 256 241 238 238 235 234 231 225 225 230 237 229 228 221 239
223 272 182 239 211 239 344 375 356 365 363 283 268 333 353 339 339 334 286 271 273 252 248 242 223 243 238 231 242 224 230 232 231 233 227 229 237 239
193 382 306 362 386 374 382 321 386 293 355 365 357 351 336 331 322 307 291 284 262 255 247 227 245 234 234 246 242 229 231 226 231 232 230 238 234 247
377 313 294 368 367 364 365 368 376 372 354 355 343 340 339 318 304 332 317 287 278 261 250 234 236 237 235 242 226 234 234 237 224 230 239 233 249 246
388 319 357 378 379 378 381 392 396 401 363 349 339 334 317 334 310 280 303 282 277 247 243 239 239 238 237 237 232 233 236 227 235 237 235 254 261 243
327 319 308 304 303 331 354 356 375 348 277 313 262 321 229 310 294 297 254 263 256 242 245 239 239 238 232 229 237 236 234 236 239 238 256 243 246 254
397 323 435 449 448 373 363 317 348 363 367 357 315 243 300 288 285 271 262 253 250 242 238 239 236 227 236 234 244 235 233 240 248 243 242 246 256 244
353 344 350 363 434 393 340 300 300 360 374 345 345 304 292 284 269 260 254 256 243 249 230 240 242 240 233 238 231 243 240 253 254 250 255 273 252 259
340 343 344 326 426 477 356 311 312 370 345 350 310 272 288 281 261 261 259 249 248 243 235 237 236 234 240 243 239 250 247 247 256 265 261 259 256 270
329 329 334 361 413 455 432 291 286 390 295 256 248 300 278 261 256 248 265 245 250 249 243 241 241 240 238 249 249 239 242 257 261 259 255 263 271 278
355 320 332 367 451 421 417 313 315 334 336 303 294 293 282 267 257 247 249 264 255 243 239 242 244 243 244 239 235 240 260 252 262 254 265 274 282 345
360 315 331 350 416 404 379 275 277 320 291 294 288 286 264 261 259 246 248 258 267 259 253 260 252 251 242 243 247 256 254 249 263 271 278 330 342 298
351 319 329 361 402 379 349 335 304 304 303 282 277 285 259 258 269 261 272 261 244 244 240 238 243 243 241 249 248 257 258 269 277 316 351 314 367 431
333 310 322 404 375 344 322 290 295 279 290 284 274 270 261 247 258 254 237 237 235 238 235 235 239 250 252 250 259 259 275 289 365 306 394 429 343 395
318 303 356 349 345 318 290 293 283 274 276 274 267 261 257 260 235 239 249 233 236 237 233 237 253 251 258 253 264 282 370 311 515 455 411 402 387 418

GFSNE_2pvu_pres_012.txt.gz
Presure
183 202 198 213 211 190 203 203 170 169 208 193 164 160 183 201 176 175 185 175 182 194 180 196 167 192 196 207 212 192 205 272 259 251 248 235 229 230
204 168 191 185 169 165 187 164 168 179 173 161 215 186 182 191 184 185 177 176 178 198 200 200 174 211 213 220 226 233 265 261 259 253 246 241 238 234
154 172 195 152 172 206 153 155 155 184 188 228 202 191 197 183 183 177 190 187 191 193 201 215 187 204 223 227 219 241 267 239 252 258 246 248 237 230
202 174 149 164 218 159 234 207 166 221 202 208 173 162 170 190 193 188 186 197 200 181 172 220 177 223 236 195 248 231 224 265 251 255 244 246 238 229
211 147 233 156 176 181 161 176 166 240 204 196 176 172 199 195 171 184 186 185 201 188 201 170 180 229 231 261 201 204 216 254 247 260 239 244 234 236
239 186 177 245 301 290 300 271 174 191 168 222 240 207 163 164 166 170 268 291 165 172 211 271 255 251 267 265 262 216 247 251 246 245 235 238 239 238
273 305 245 254 178 242 252 244 196 239 284 284 270 278 368 308 189 260 243 181 301 228 228 197 288 222 275 252 278 227 263 246 241 241 238 238 235 235
339 230 244 350 337 335 272 322 258 361 346 398 349 216 214 212 211 191 358 245 199 371 253 298 215 265 271 254 245 240 253 250 240 240 239 245 237 235
341 331 335 323 360 358 328 355 349 319 337 340 318 213 323 298 327 365 373 343 345 347 256 306 285 281 253 247 256 241 253 249 246 227 231 234 235 235
380 348 361 384 359 342 349 328 318 306 316 314 380 377 376 361 375 362 363 371 359 346 345 330 293 272 251 256 239 254 240 235 235 233 233 233 246 232
418 403 379 347 350 322 321 321 331 324 378 380 370 371 372 362 346 360 371 362 351 340 341 320 298 280 263 249 246 251 250 254 235 236 236 245 236 240
329 320 320 321 326 324 328 327 425 403 344 303 382 387 386 332 303 325 356 347 333 315 309 306 287 260 254 246 256 244 247 236 219 237 237 230 241 235
390 397 391 403 419 432 361 425 343 320 307 301 295 374 364 376 301 353 339 327 315 303 295 281 274 265 260 258 245 253 244 237 240 241 238 241 236 242
373 370 378 380 357 386 393 317 436 399 461 455 307 285 367 384 264 294 272 318 264 311 313 286 274 259 256 258 253 239 238 238 238 243 237 230 238 235
369 368 362 362 355 358 359 347 350 374 443 369 328 340 387 355 312 300 313 254 247 276 292 287 282 274 260 255 249 241 246 249 241 233 231 243 234 245
357 357 354 337 338 343 345 348 327 386 422 350 289 351 340 305 315 296 285 274 284 280 244 261 259 252 249 247 236 237 237 231 234 248 243 243 246 238
462 396 380 347 329 326 329 338 378 397 357 308 291 344 325 300 292 284 274 274 266 260 260 250 249 245 244 239 236 237 241 247 245 234 247 240 250 237
441 445 463 355 347 322 325 356 436 434 330 294 358 339 310 299 285 273 268 265 258 255 252 252 245 244 250 251 252 248 246 242 245 251 262 248 261 248
426 435 464 339 351 316 347 422 418 320 317 280 322 313 268 290 274 270 257 259 253 248 254 253 254 247 243 241 240 248 255 266 249 250 254 256 239 259
421 428 535 335 336 328 408 407 401 313 276 305 267 300 260 271 270 273 260 265 259 257 246 246 251 252 254 261 255 252 241 246 252 258 252 250 269 281
419 438 329 334 318 341 392 356 340 330 291 311 310 292 280 277 271 256 260 252 240 237 246 253 256 248 244 247 246 252 251 255 258 267 269 283 303 371
417 331 330 320 330 378 353 321 300 301 301 310 299 276 265 272 261 266 253 255 258 260 259 243 247 250 248 253 255 252 258 257 269 283 319 347 369 322
355 327 311 317 372 352 318 296 297 297 290 279 276 283 284 274 269 246 260 266 247 243 254 251 247 251 255 257 255 266 263 286 334 374 375 346 377 391

GFSNE_2pvu_pres_015.txt.gz
Presure
185 191 189 195 195 217 194 186 193 209 142 204 175 161 200 157 199 198 164 169 194 185 188 206 182 189 201 168 174 185 185 172 172 212 205 207 228 203
135 128 192 218 185 154 223 222 171 220 219 197 142 194 219 225 215 162 161 198 207 172 170 188 183 181 190 193 191 192 203 202 200 203 211 224 227 252
212 151 233 176 222 162 184 191 148 160 178 253 159 197 157 185 209 226 179 162 254 224 213 203 181 183 187 169 178 197 211 209 178 235 236 268 244 266
238 235 237 156 159 145 163 258 182 273 184 177 163 194 230 167 318 316 304 284 277 175 173 267 255 201 205 206 207 203 222 253 254 247 297 261 262 267
228 153 230 251 280 264 372 225 334 360 359 276 216 339 262 255 320 307 309 210 235 269 302 268 267 229 246 259 244 231 239 234 250 273 249 263 273 264
216 199 227 416 419 424 349 331 353 343 338 341 340 344 340 328 331 321 326 317 364 325 334 325 315 264 304 292 242 214 232 245 270 279 250 266 247 270
352 411 403 399 351 318 307 367 374 369 355 350 343 329 327 320 321 319 366 295 348 335 297 360 336 241 362 343 319 269 235 213 279 271 246 242 270 248
411 407 404 400 399 402 401 402 403 404 398 347 400 341 407 357 303 342 361 340 338 341 317 343 352 198 243 206 309 300 243 265 272 248 248 275 254 240
400 402 402 398 398 401 402 405 409 412 419 421 415 410 341 324 318 315 314 305 312 280 330 328 340 351 290 329 308 293 286 281 257 258 268 254 247 249
405 406 392 391 395 386 401 377 355 321 321 321 325 322 314 309 307 308 338 387 378 375 335 328 357 352 347 333 360 305 281 285 265 262 259 238 239 251
348 341 372 329 304 292 303 391 392 397 383 321 315 318 323 318 322 311 311 327 366 360 360 352 349 363 344 335 299 289 290 265 260 256 256 249 255 240
370 364 359 362 366 368 370 371 369 381 379 377 423 455 327 409 411 400 303 308 395 361 331 340 355 346 339 317 316 297 275 255 257 252 242 245 228 244
547 546 537 427 365 365 369 372 372 377 371 380 352 332 422 323 307 304 290 370 372 393 311 350 341 327 324 318 299 294 265 261 259 246 247 243 245 241
516 508 499 492 488 374 361 362 359 356 353 359 355 358 425 442 439 351 302 279 365 264 337 325 322 309 299 288 285 278 275 260 260 255 248 243 241 242
471 465 464 465 466 470 358 350 346 338 344 354 336 326 451 364 325 369 338 338 326 266 273 256 299 311 288 283 283 266 255 249 249 244 242 248 250 250
442 439 439 440 446 456 466 343 336 329 335 344 324 427 344 313 337 326 352 306 313 306 269 292 302 297 281 271 265 260 258 243 244 240 238 250 246 231
417 416 420 425 436 452 522 343 332 325 329 384 304 338 305 289 316 309 311 301 301 292 284 285 280 276 276 277 262 260 258 254 258 248 247 241 242 243
397 410 417 424 438 535 377 343 321 327 428 444 342 308 284 310 312 290 297 288 278 274 275 263 257 261 261 255 254 245 252 246 232 235 246 247 250 249
388 407 418 428 540 345 341 317 326 419 373 318 318 325 319 311 287 287 287 279 273 268 264 259 259 257 249 244 249 247 248 247 250 252 250 253 254 234
389 417 418 518 329 335 316 387 394 340 326 315 277 321 303 286 289 280 285 268 254 258 258 261 251 249 247 250 247 241 244 243 250 249 248 248 252 247
402 421 390 320 329 314 379 378 336 302 298 274 330 271 288 280 264 269 275 257 266 270 246 261 253 249 252 256 260 264 254 261 259 254 253 255 243 251
417 374 317 320 364 372 343 329 320 310 305 274 294 285 281 266 264 265 261 255 259 256 249 254 258 258 253 260 257 248 257 259 258 248 254 269 278 286
425 321 314 307 344 331 316 308 311 308 294 307 298 265 263 269 261 262 260 259 256 252 258 253 250 263 251 259 256 255 255 265 270 272 283 294 373 349

GFSNE_2pvu_pres_018.txt.gz
Presure
210 155 201 149 146 148 146 215 231 218 147 224 229 151 162 161 160 172 175 241 192 161 166 218 221 230 249 222 177 202 222 198 225 198 171 181 167 177
147 154 187 130 176 162 157 208 196 163 157 133 150 155 155 153 245 294 253 280 229 235 235 249 250 239 237 213 234 234 234 241 205 251 185 184 158 195
136 150 145 153 157 157 215 166 233 244 257 313 449 444 457 414 441 373 347 331 353 354 298 285 338 329 300 225 239 257 168 253 267 254 205 224 243 190
145 140 136 231 252 246 257 290 305 423 425 433 427 427 417 416 422 433 367 325 353 337 363 323 322 313 216 212 302 183 277 279 269 242 241 157 253 241
160 225 253 185 326 331 416 411 411 410 410 412 423 416 410 335 317 315 385 281 314 348 300 300 304 308 301 321 303 302 291 270 284 238 276 269 282 280
238 244 373 419 412 407 405 403 400 400 397 401 408 413 410 407 409 407 400 390 342 333 331 320 315 317 307 297 300 302 300 335 322 309 275 281 256 247
447 437 427 415 408 403 403 400 400 403 402 399 402 405 410 406 401 405 415 400 384 326 313 304 305 302 302 307 344 296 321 312 321 305 313 276 273 282
423 413 403 395 387 385 385 385 396 391 395 394 338 403 301 404 405 397 406 415 406 384 334 393 309 295 295 355 356 356 350 285 242 355 210 216 270 272
407 393 381 376 374 374 325 249 374 368 368 382 325 304 294 386 397 328 323 319 314 392 383 330 333 315 314 307 315 330 307 281 321 320 297 272 261 264
374 372 377 209 201 521 554 554 545 439 364 361 368 380 379 381 381 391 343 315 315 308 309 313 344 365 338 294 292 297 304 340 339 267 290 276 278 255
381 440 190 200 417 521 523 525 527 524 518 370 361 370 378 368 373 376 429 479 377 312 306 314 298 300 364 357 359 355 348 349 330 297 287 272 279 256
395 348 314 447 481 487 489 492 496 496 495 490 366 370 371 369 377 392 435 450 345 399 398 385 367 365 366 356 346 355 356 352 308 299 288 293 273 257
394 394 394 445 453 455 457 464 470 474 473 383 359 360 358 366 377 395 446 450 359 313 348 301 382 371 351 342 339 335 348 338 314 294 298 274 273 268
380 379 388 415 428 434 438 445 447 457 434 355 351 345 348 356 346 399 452 456 400 306 291 290 372 362 299 291 338 331 331 321 288 286 280 273 274 255
378 372 379 394 415 423 429 432 446 477 347 341 330 332 344 336 438 371 357 337 341 368 292 356 350 299 332 326 327 317 315 316 288 276 275 265 254 255
371 366 370 385 414 426 427 446 531 469 337 321 321 332 327 359 350 325 349 349 341 337 330 329 320 271 308 302 301 297 297 283 294 269 265 259 252 247
374 372 367 394 420 422 450 497 383 333 326 316 326 367 347 328 313 317 339 325 313 310 307 302 304 304 299 294 287 278 264 268 270 273 263 261 255 247
368 364 373 418 426 517 398 339 337 323 317 403 437 326 314 306 339 307 306 305 298 292 290 279 284 275 278 273 271 267 263 261 260 257 255 245 250 247
358 361 408 429 407 336 332 332 312 412 434 335 342 312 296 312 298 310 304 297 291 290 284 284 283 282 273 278 281 276 271 270 257 255 255 252 254 254
359 389 426 376 325 329 316 396 404 397 310 310 312 299 305 298 285 293 281 285 277 271 285 266 266 261 259 262 267 261 254 249 249 240 236 244 248 248
373 428 361 324 319 326 373 353 323 322 308 315 298 290 295 281 285 278 291 272 267 271 262 260 269 256 251 260 258 257 259 257 259 256 251 254 255 257
419 354 320 311 343 334 334 326 320 312 292 291 306 281 265 265 265 260 263 262 265 264 263 268 257 263 259 251 248 250 253 260 261 262 247 246 250 250
356 315 308 336 323 319 314 317 303 294 267 284 274 267 267 264 265 263 268 269 267 266 274 273 273 275 270 267 264 261 255 255 253 249 249 254 259 270

GFSNE_2pvu_pres_021.txt.gz
Presure
113 198 149 201 222 203 197 167 167 155 159 153 171 247 261 271 247 239 248 287 288 281 288 284 279 280 330 303 301 287 293 240 243 199 298 233 261 192
132 173 199 190 170 219 221 235 244 208 224 262 278 316 308 353 356 360 416 429 421 278 429 427 429 387 377 255 327 305 286 282 279 283 253 252 247 230
207 203 203 171 183 234 227 232 260 282 335 215 410 441 431 417 419 419 416 418 418 412 412 435 419 395 376 321 350 341 335 296 277 298 290 287 292 264
223 172 215 236 242 228 252 318 181 429 432 262 446 430 420 411 407 405 399 399 403 409 406 397 412 408 403 385 404 346 309 334 331 288 280 285 287 287
211 233 237 249 287 453 443 441 433 421 414 412 418 405 404 408 410 408 404 400 391 392 396 408 397 397 388 325 326 321 387 327 318 312 303 294 293 286
262 275 328 457 290 438 427 412 398 391 384 383 386 291 294 194 387 391 397 396 403 403 398 397 406 398 408 383 362 358 271 321 325 350 302 294 294 286
273 436 455 442 424 408 399 393 393 451 439 200 197 420 397 385 380 378 378 385 337 368 394 381 392 409 398 396 343 329 330 305 299 283 295 291 282 280
455 447 430 413 399 391 461 443 430 271 193 199 431 431 477 559 561 390 374 380 369 306 301 418 360 403 404 403 335 324 321 319 316 312 296 288 275 275
439 422 404 392 406 435 423 411 395 405 459 484 506 514 520 520 529 540 377 371 324 287 292 407 328 316 335 396 373 324 309 306 305 299 346 318 300 297
415 396 389 451 431 416 406 399 386 424 451 455 467 474 484 493 502 514 374 364 371 363 372 399 361 315 307 396 392 331 358 330 341 339 351 320 307 313
393 382 450 430 410 396 397 387 388 425 429 438 451 462 471 479 491 460 366 373 362 358 382 428 422 309 313 309 392 386 340 323 307 324 345 335 324 302
384 435 423 414 394 384 389 383 411 425 428 427 436 450 472 470 369 366 361 361 367 356 417 454 480 411 312 312 302 307 367 346 304 298 321 296 292 325
381 414 419 401 390 380 379 386 426 430 437 447 458 492 366 358 355 350 355 364 403 427 441 427 339 409 345 334 316 304 297 366 354 314 320 293 292 279
424 392 414 397 374 378 376 418 427 440 516 550 415 351 347 340 342 350 352 350 434 426 398 356 337 350 318 383 376 377 374 361 353 346 316 289 335 303
400 378 408 396 368 370 412 431 518 553 511 342 340 331 325 334 343 334 428 395 484 390 394 309 303 291 289 383 369 356 354 350 349 336 327 322 314 290
384 412 411 369 369 413 435 533 419 395 334 336 318 321 334 328 328 343 332 326 341 370 370 353 386 277 374 350 310 296 294 331 344 314 330 328 297 293
375 415 357 363 399 432 434 366 339 335 326 314 321 368 353 332 311 324 324 332 326 325 328 322 328 330 332 302 292 326 319 321 325 317 321 315 291 275
421 365 442 398 441 367 336 340 334 315 368 443 361 316 307 332 339 326 305 307 305 307 305 314 310 298 293 298 298 296 298 293 287 314 280 288 267 276
467 446 414 415 341 333 332 380 412 425 336 323 327 323 301 300 288 295 296 291 288 294 291 290 288 292 290 281 282 277 281 292 259 264 265 278 260 257
474 415 405 334 331 358 390 365 364 318 305 307 291 301 289 290 288 279 278 278 275 268 275 273 273 270 269 270 262 275 255 258 259 253 261 256 251 252
453 396 237 322 364 372 315 307 305 298 294 289 282 286 294 277 287 286 282 277 274 270 261 283 271 275 265 261 260 258 259 262 261 267 262 254 247 246
386 323 320 336 329 317 309 295 299 295 288 275 289 283 276 278 274 261 285 273 267 269 270 267 270 267 269 264 265 270 268 245 247 253 252 254 253 252
320 330 332 330 314 301 312 312 287 307 300 271 282 278 271 272 270 274 274 272 273 272 273 272 274 275 269 269 265 254 250 250 252 253 251 250 245 243

GFSNE_2pvu_pres_024.txt.gz
Presure
205 195 157 163 151 218 224 121 198 231 218 207 199 220 253 247 384 479 480 475 463 449 445 441 441 433 372 343 322 306 284 265 260 252 251 252 206 242
214 217 142 157 191 175 227 219 221 227 252 85 266 379 480 451 460 454 454 450 450 440 432 428 420 421 414 421 410 400 355 311 289 273 268 262 263 243
140 152 196 209 216 210 223 227 225 230 247 426 474 459 440 425 423 413 409 407 415 422 424 414 412 410 408 409 414 406 420 394 368 305 308 319 264 260
206 138 206 214 214 228 233 213 236 250 457 448 431 413 408 402 403 401 394 388 385 378 374 402 405 399 399 399 404 409 402 406 397 368 304 295 293 282
203 212 202 231 228 221 237 237 459 444 419 403 421 460 447 438 438 438 446 482 420 383 334 371 391 237 398 387 389 403 411 389 380 369 406 329 279 286
216 207 242 241 238 240 300 448 400 374 422 460 439 423 412 408 412 434 476 302 193 566 324 374 373 377 397 396 386 389 397 401 415 422 345 382 328 288
230 228 243 242 406 385 439 418 400 466 444 427 414 406 404 403 449 483 504 528 545 468 469 550 375 373 381 391 402 395 399 400 405 412 407 345 338 291
228 230 266 457 445 432 410 396 444 431 419 407 397 401 399 430 451 464 479 492 520 514 448 435 568 371 372 387 398 403 399 407 404 435 391 393 387 325
234 383 455 439 424 409 409 444 419 413 398 388 397 397 431 435 451 457 463 474 489 492 509 542 532 372 372 382 391 399 399 411 410 400 414 386 351 278
456 453 440 422 403 407 449 424 424 397 381 387 394 434 442 440 448 456 464 470 472 482 505 521 373 363 372 342 306 292 400 403 411 402 409 351 362 371
450 437 416 396 391 445 423 431 417 376 377 394 432 437 447 456 466 485 508 518 498 403 379 364 365 369 370 361 373 412 336 338 410 406 392 335 326 378
434 370 389 384 439 419 402 437 374 381 416 428 437 491 518 359 356 352 355 355 355 363 370 363 357 357 366 376 386 411 325 315 403 390 323 314 311 306
418 389 378 443 425 413 434 373 391 431 483 545 528 416 342 342 341 342 343 346 351 363 366 368 374 372 399 422 413 371 305 308 398 381 307 298 291 292
392 369 443 433 453 421 380 391 435 538 422 417 337 334 329 326 330 339 345 346 344 343 390 430 430 435 449 433 451 389 306 300 357 387 372 307 363 324
367 444 431 466 425 381 429 444 409 388 350 332 331 317 317 330 334 322 361 354 462 427 465 396 399 399 397 395 407 307 300 299 290 344 311 314 323 320
448 428 441 463 407 428 442 383 345 337 331 320 311 343 452 332 329 322 322 353 362 348 339 344 355 305 303 300 297 380 384 311 291 288 290 299 320 305
431 417 459 452 422 420 350 334 339 324 311 372 359 335 338 326 327 312 315 328 327 329 334 323 351 325 286 275 379 366 363 362 363 354 345 342 295 281
403 464 437 425 395 341 356 390 391 391 348 314 310 328 330 324 323 300 304 309 313 313 318 321 324 336 339 336 328 296 307 338 337 337 339 336 334 321
425 440 425 368 332 389 393 365 341 316 323 318 316 301 300 302 298 297 296 295 303 301 307 300 298 307 308 312 314 315 320 321 323 322 325 328 322 327
435 419 349 329 381 366 328 314 321 309 310 297 299 286 287 287 281 288 281 286 285 271 286 283 286 286 285 289 272 282 289 285 296 303 304 313 320 299
420 339 340 370 339 305 309 305 301 296 293 293 281 287 281 274 281 275 270 266 275 271 264 276 271 279 274 273 281 274 272 290 285 272 282 284 288 294
336 342 324 331 324 293 295 288 295 291 280 278 286 287 274 272 276 270 271 281 264 267 263 262 267 269 275 265 268 259 263 256 257 259 277 262 263 258
341 324 319 304 295 290 281 304 283 280 289 276 284 280 279 276 275 272 272 274 273 272 274 265 261 256 259 265 271 259 258 261 265 263 260 264 255 253

GFSNE_2pvu_pres_027.txt.gz
Presure
174 215 219 213 219 200 194 219 218 235 218 207 209 115 83 238 239 224 235 258 298 396 467 467 456 446 445 450 470 465 463 394 361 342 323 308 276 256
214 221 216 226 142 200 192 173 169 213 215 135 228 236 210 248 69 225 457 447 438 429 426 426 425 428 424 428 434 447 448 448 439 389 343 310 299 327
207 229 175 208 216 155 214 215 212 224 238 246 256 250 65 453 448 436 422 414 416 447 446 453 413 399 391 400 414 422 430 436 435 426 389 352 297 276
212 123 200 189 217 213 218 224 235 244 256 261 271 459 443 428 413 440 466 457 446 436 428 427 432 451 543 380 380 393 412 410 416 431 417 403 312 304
155 172 170 201 205 214 216 243 252 262 308 458 445 426 413 461 448 445 439 426 411 404 406 407 410 414 422 530 380 372 381 405 404 423 429 419 358 339
208 203 205 205 225 239 248 252 270 460 450 429 412 405 455 430 431 428 409 394 392 394 438 449 469 507 556 421 498 194 278 395 400 403 410 412 392 357
204 213 224 230 247 250 257 460 463 444 422 402 445 443 432 425 417 392 393 416 441 432 444 460 477 498 529 558 456 411 371 374 401 398 402 415 411 397
218 226 234 249 251 267 459 452 435 414 394 452 432 426 428 409 392 428 444 440 461 445 468 476 477 497 518 537 420 580 382 368 392 399 393 401 406 397
226 241 250 255 451 455 402 433 407 383 439 424 441 428 388 425 448 468 506 517 525 520 490 481 473 487 494 518 493 456 415 369 374 404 399 389 397 401
247 252 411 449 414 441 430 412 384 444 455 427 412 405 454 520 547 557 506 429 492 491 487 483 461 468 489 513 489 437 578 374 375 387 399 395 393 403
251 456 424 419 435 423 406 391 446 448 406 375 445 517 461 454 353 347 355 357 358 360 362 381 416 467 493 520 542 562 376 373 376 379 394 407 399 415
450 378 404 425 416 395 428 442 494 413 385 448 418 417 374 343 339 336 337 342 342 340 345 352 356 358 363 368 367 368 372 375 344 289 281 391 403 404
373 437 417 406 387 416 430 469 490 444 421 398 372 339 337 327 320 331 342 348 354 353 356 359 356 355 358 362 365 364 364 321 292 394 406 393 388 401
430 412 394 375 450 424 469 469 427 405 353 342 332 327 317 323 410 382 354 391 439 476 453 415 417 419 433 422 376 372 372 375 391 332 312 336 396 396
408 383 366 445 417 481 447 412 393 333 337 329 316 313 349 330 327 336 340 358 330 340 369 425 426 384 407 400 437 469 474 436 314 310 305 328 382 389
376 379 440 412 462 428 397 364 328 332 318 313 345 334 337 325 331 329 330 329 332 340 355 344 378 321 396 395 393 390 387 303 300 304 303 373 372 324
473 440 409 442 405 386 329 400 407 356 343 329 318 320 324 317 321 319 313 315 315 322 328 349 363 356 304 302 356 389 316 302 305 300 305 365 358 304
436 412 437 388 385 340 377 349 339 322 307 326 325 307 301 306 299 303 315 301 297 312 316 331 332 345 297 281 280 350 355 369 309 303 292 358 347 334
417 437 379 381 375 346 339 335 314 327 315 304 296 300 298 293 294 288 290 298 302 298 290 304 314 319 321 328 311 355 359 366 362 355 290 288 290 350
444 370 369 376 353 346 310 307 313 305 297 292 289 288 286 284 286 281 277 288 274 272 275 291 288 293 301 303 309 324 323 302 336 341 345 342 346 325
363 357 369 357 329 298 309 307 294 293 291 294 285 287 286 279 276 279 278 272 275 275 269 278 262 279 281 288 287 291 280 311 316 326 320 321 330 329
352 321 329 317 304 300 291 295 298 286 288 272 293 291 282 272 268 279 273 265 271 266 268 271 267 272 276 274 281 272 277 279 291 300 308 312 312 323
322 309 315 311 305 300 302 305 302 275 275 280 278 276 277 292 277 280 281 272 277 271 268 266 261 268 270 277 275 282 275 284 286 289 287 276 278 287

GFSNE_2pvu_pres_030.txt.gz
Presure
205 243 236 226 231 225 228 243 238 195 212 212 191 202 206 216 219 224 229 78 225 258 265 478 472 470 465 459 456 456 459 467 477 484 452 422 397 350
239 241 222 225 219 231 218 210 136 224 200 122 196 202 204 222 229 200 70 292 468 459 451 444 440 434 432 427 419 416 411 418 434 454 491 507 428 380
219 228 217 226 224 203 212 211 214 211 219 218 174 229 103 131 61 407 465 453 442 428 416 447 458 451 453 458 460 458 462 518 405 407 430 480 493 471
221 223 227 205 205 210 203 210 216 221 225 237 257 265 420 480 461 451 433 418 430 458 450 442 433 433 434 429 422 420 423 431 508 430 397 390 460 464
224 171 204 211 200 206 212 217 225 241 266 273 357 438 467 441 432 415 425 450 434 438 438 426 421 413 408 409 410 411 413 411 421 484 402 392 435 448
217 214 203 191 211 217 222 245 260 265 380 413 438 450 430 411 443 471 464 444 427 406 408 422 440 447 455 454 451 458 456 408 409 418 472 388 389 441
216 190 202 215 221 238 261 264 289 409 450 454 437 414 438 465 456 437 411 446 463 524 525 467 475 475 479 477 476 475 479 489 509 409 442 396 382 433
180 209 215 229 259 262 352 411 399 447 433 418 401 462 462 441 409 463 565 575 549 511 509 508 511 520 519 481 479 487 494 512 527 565 423 433 378 418
210 225 252 261 304 469 450 455 440 412 392 407 456 480 434 451 451 431 434 362 358 361 357 351 366 384 472 469 464 474 486 505 529 557 420 436 372 380
247 251 264 375 463 454 451 437 407 379 452 446 476 450 454 420 397 368 342 343 345 344 347 345 359 357 370 455 452 463 485 501 527 559 428 435 366 369
254 332 464 456 451 438 424 404 380 441 454 477 440 430 370 362 342 334 328 332 343 346 348 348 354 356 356 363 428 481 514 524 532 459 446 386 363 384
313 459 447 439 424 402 384 476 437 487 431 417 392 349 346 332 328 326 404 428 474 469 381 352 363 354 358 352 356 374 536 436 423 437 587 372 365 380
461 447 429 405 385 484 455 434 447 415 404 352 339 334 323 316 345 333 326 330 336 352 409 416 414 416 381 356 357 355 361 401 572 595 371 364 365 377
442 413 388 427 470 438 441 423 399 391 335 338 324 316 333 330 328 336 337 343 350 337 343 388 425 380 387 426 365 359 360 359 366 367 369 371 378 386
396 374 474 452 425 445 405 391 357 323 334 317 345 332 325 310 318 326 326 323 332 344 352 342 410 436 404 403 454 380 368 362 365 327 314 301 375 378
392 474 442 416 448 393 392 381 379 348 341 327 311 307 316 325 316 316 314 317 318 324 337 357 352 324 382 390 440 447 374 376 381 380 309 392 389 375
468 435 415 431 391 391 368 351 343 327 315 313 323 317 305 304 305 312 304 294 309 319 326 339 343 355 302 360 388 349 386 385 377 370 322 313 335 384
431 418 426 383 382 349 342 336 315 310 309 316 299 301 296 298 287 286 292 298 294 299 313 319 327 332 298 290 304 388 380 376 301 293 298 299 299 354
531 427 374 375 346 343 313 309 321 304 302 299 294 284 288 285 286 284 284 277 275 274 294 309 312 313 324 350 316 377 310 302 304 297 291 368 374 384
377 371 382 360 354 311 301 307 302 295 299 299 298 292 291 284 283 281 277 275 274 277 275 277 281 303 300 318 320 350 359 304 365 311 290 340 345 308
358 343 348 333 309 308 309 313 300 305 288 297 290 290 297 291 280 281 286 278 280 278 272 272 265 275 288 297 311 320 319 339 347 326 286 283 332 328
328 327 328 305 308 309 301 293 287 283 283 279 278 276 273 269 281 283 282 279 275 276 270 272 271 268 263 272 282 298 313 264 317 333 338 344 327 333
316 306 306 306 294 283 278 282 291 277 268 274 285 279 279 285 294 278 277 277 283 279 276 271 270 272 276 263 260 275 271 298 311 308 321 327 336 338

GFSNE_2pvu_pres_033.txt.gz
Presure
196 149 201 218 221 255 243 172 238 243 232 221 234 201 207 204 212 213 140 221 221 221 224 227 76 153 84 258 263 296 486 489 488 486 490 503 516 301
202 211 229 247 155 206 224 247 236 215 206 195 113 194 207 211 209 228 228 228 74 64 147 347 472 475 442 463 462 452 447 445 446 449 454 464 474 490
235 237 149 216 225 246 236 215 215 222 232 216 208 162 215 128 116 238 290 63 342 470 462 457 447 439 472 472 464 477 476 474 472 474 479 462 434 445
164 234 227 241 142 236 220 222 216 212 220 221 215 223 284 498 471 479 468 462 450 440 433 483 480 476 465 456 456 451 449 449 447 445 450 462 489 507
229 241 251 146 219 225 216 215 219 214 221 236 351 500 490 473 462 450 437 421 443 468 462 452 451 448 439 409 410 412 408 403 404 420 429 437 449 470
241 222 219 220 216 217 217 214 215 269 495 487 480 475 457 441 432 456 488 450 449 428 419 505 538 566 558 554 525 506 474 464 459 453 424 407 417 429
221 215 174 216 210 210 227 268 492 483 475 462 450 432 417 410 472 499 471 457 452 443 445 474 460 385 375 379 386 434 549 518 498 489 462 457 416 415
214 213 208 213 214 264 492 482 467 450 433 420 405 435 468 502 489 454 437 416 412 414 366 347 356 354 366 368 368 373 486 492 490 496 487 483 463 420
212 213 218 253 495 487 475 454 425 399 411 488 464 451 490 439 428 396 371 356 353 346 338 324 350 347 354 356 365 363 387 472 478 474 475 505 517 482
221 246 442 494 478 461 439 411 392 484 452 442 467 445 433 371 347 341 336 331 335 385 463 461 402 366 359 358 358 355 369 474 467 464 485 489 516 549
363 496 478 465 447 423 406 510 468 431 454 429 422 365 351 341 336 323 326 336 337 336 339 362 425 467 369 411 354 356 365 471 474 497 505 511 526 557
485 470 450 433 557 516 490 453 461 423 405 408 347 350 334 324 334 328 339 342 345 352 368 336 403 414 408 421 359 361 363 402 510 541 534 528 547 565
464 440 537 521 495 472 436 447 405 411 368 336 346 320 333 335 334 328 326 322 330 342 350 349 356 431 388 406 414 360 360 369 545 428 560 553 543 412
429 509 496 479 458 431 425 396 413 375 358 348 325 321 323 319 328 319 319 323 331 326 338 360 356 437 419 401 440 356 359 366 413 471 439 428 430 462
498 471 458 443 433 408 397 401 362 354 333 324 317 323 326 302 314 307 305 306 312 323 331 354 377 342 390 402 442 367 354 357 366 390 572 618 567 371
462 549 540 440 402 393 376 356 345 329 316 317 323 305 304 296 302 297 303 298 309 307 322 325 365 336 367 426 422 395 358 357 362 368 366 364 361 361
519 473 444 393 377 358 348 324 318 311 311 321 305 295 293 296 287 285 289 291 290 299 307 321 343 323 303 382 367 392 375 368 352 319 370 370 366 375
436 398 380 374 352 350 326 323 307 316 307 298 299 298 280 284 287 285 287 281 279 277 287 302 328 346 289 311 375 369 381 401 390 380 281 282 296 373
375 378 378 361 331 333 307 316 311 312 303 298 294 289 294 296 288 281 280 278 279 274 285 285 298 325 335 277 325 307 296 314 314 313 307 308 370 373
355 348 353 318 305 313 312 312 316 305 303 298 295 287 291 293 296 293 279 278 271 272 271 276 282 292 321 328 370 336 296 293 296 293 294 297 292 299
339 335 336 319 316 302 292 283 283 280 279 284 268 272 278 281 279 281 291 277 279 273 269 270 270 281 286 290 332 354 345 294 287 290 332 361 353 356
322 316 309 301 289 285 277 286 285 281 271 274 283 283 297 298 292 276 279 277 286 274 274 270 270 276 273 285 307 319 349 344 330 290 351 362 338 327
317 301 292 288 276 280 292 286 269 250 265 310 371 306 364 401 405 419 416 288 282 284 275 269 265 270 274 275 278 296 315 328 338 327 277 344 358 303

GFSNE_2pvu_pres_036.txt.gz
Presure
257 259 243 195 220 223 237 152 246 145 206 241 156 225 204 212 232 231 227 225 215 214 212 220 216 225 229 233 239 241 232 100 242 241 239 239 238 240
246 198 216 223 254 157 190 152 202 269 248 164 214 217 93 167 223 225 224 229 232 232 236 242 246 71 229 257 262 356 356 356 353 286 351 350 350 258
222 220 256 258 141 205 256 246 230 218 219 219 199 167 154 219 223 226 266 418 420 452 466 454 61 147 469 466 466 488 461 496 496 464 457 459 461 462
248 246 155 133 259 242 226 227 195 217 221 225 222 119 261 77 479 491 479 472 468 458 449 437 421 434 514 519 493 486 482 483 485 491 488 482 476 482
226 188 252 236 223 220 211 215 220 217 219 263 516 501 487 468 459 449 438 430 422 430 471 486 495 490 469 460 458 510 582 574 496 443 433 449 456 453
248 232 218 219 212 217 222 218 236 378 495 477 467 460 442 433 525 512 500 479 490 480 455 461 456 461 458 466 473 495 450 464 471 559 572 504 456 427
216 208 214 214 221 229 236 413 483 474 460 450 441 463 501 486 468 455 450 441 432 426 444 438 390 370 371 374 369 364 363 365 370 374 382 563 523 477
212 207 214 217 219 280 490 471 456 589 571 538 508 480 457 458 433 425 434 449 373 368 349 341 353 341 346 345 346 351 351 352 360 372 378 384 504 510
212 218 217 261 335 482 459 529 546 518 491 472 458 463 435 439 393 352 344 340 337 336 331 343 357 355 363 435 482 437 372 363 363 370 369 381 475 484
219 225 283 406 471 452 526 515 489 457 442 441 435 435 395 342 367 333 328 332 347 352 339 345 362 394 344 427 428 422 403 383 365 360 362 451 471 469
257 297 457 463 495 511 495 474 437 429 418 425 409 342 358 330 331 331 329 328 326 334 332 343 366 359 353 433 425 419 433 361 355 357 379 487 479 476
314 375 453 484 500 481 456 432 417 405 418 356 340 350 337 330 323 317 319 316 322 331 340 347 359 361 375 434 446 432 435 360 356 367 514 415 527 519
325 450 497 492 496 551 436 408 411 400 359 342 342 331 318 316 322 323 312 305 307 328 330 333 375 392 379 397 389 432 364 356 362 520 426 482 544 541
446 457 491 473 479 430 398 408 379 351 344 333 320 319 324 310 320 308 312 305 302 315 311 334 383 393 390 398 442 397 355 357 363 521 419 551 561 539
443 490 455 443 405 393 397 368 349 330 323 314 324 317 303 302 293 302 294 304 298 306 308 325 377 392 300 433 397 374 349 355 363 521 421 445 587 577
494 463 421 389 390 373 359 345 321 318 320 312 310 301 297 297 296 284 291 292 294 285 303 307 325 332 295 400 385 366 347 349 357 521 438 413 402 398
476 419 385 394 369 355 333 326 324 311 306 303 304 298 298 290 278 279 287 283 286 290 290 302 312 378 293 367 378 385 357 346 355 354 371 479 417 410
451 373 387 375 351 324 320 305 312 307 296 309 298 291 289 295 290 286 284 282 282 283 288 288 302 321 380 374 360 372 383 356 304 352 350 353 353 349
370 349 349 318 316 322 312 301 300 301 302 300 298 284 278 276 283 291 292 282 277 283 280 275 290 305 372 281 342 310 299 370 352 284 292 360 368 380
343 329 326 318 307 299 296 289 278 285 296 281 262 267 273 278 276 273 277 294 287 280 283 281 285 289 317 347 363 299 294 291 311 352 287 277 359 364
330 316 311 298 291 287 286 282 301 291 264 252 263 302 329 325 309 294 293 279 280 283 282 284 276 283 297 333 342 308 290 282 281 297 303 348 355 357
316 307 296 293 286 288 283 290 291 361 354 252 367 359 357 363 427 417 375 406 283 276 287 281 279 277 287 306 346 293 293 287 283 283 292 320 374 353
305 297 292 287 290 317 291 368 359 358 340 353 347 346 344 341 386 379 417 453 396 285 284 283 279 277 281 289 325 349 339 288 313 342 336 339 338 350

GFSNE_2pvu_pres_039.txt.gz
Presure
200 233 272 248 245 225 256 267 270 260 237 261 134 201 190 86 225 225 228 225 218 215 215 213 221 225 229 228 228 226 224 225 222 222 220 69 215 69
228 213 240 224 259 264 256 236 247 249 215 170 68 185 91 220 224 235 133 240 239 244 250 254 256 262 275 361 363 362 61 77 313 257 254 225 242 236
243 224 251 262 249 227 275 184 153 224 214 205 118 186 228 235 254 432 503 495 492 485 473 464 466 69 466 468 468 466 347 367 475 476 479 478 484 490
213 261 249 222 157 152 192 220 196 215 231 233 235 250 503 499 517 613 594 573 553 489 503 499 502 504 507 507 509 74 502 93 522 531 534 535 532 451
258 265 150 166 232 217 221 210 227 225 219 313 415 554 589 577 564 548 528 503 479 464 470 479 469 473 470 466 467 473 470 485 468 462 466 485 470 467
271 196 231 216 192 213 221 222 239 293 354 495 534 530 509 499 485 471 452 441 435 439 457 453 453 429 426 429 428 436 424 466 444 437 460 485 508 561
229 215 216 216 208 228 218 276 327 381 520 514 509 486 464 441 431 428 444 453 432 377 353 370 355 354 354 351 350 350 353 357 360 361 361 363 369 379
206 213 211 214 229 231 281 337 477 509 497 489 471 438 427 434 439 390 371 358 349 352 334 337 355 350 359 364 373 360 362 432 416 358 355 356 358 362
206 210 187 230 248 287 336 473 502 553 467 458 432 432 416 376 364 366 361 343 350 349 336 341 342 345 352 365 375 372 354 426 431 436 436 376 367 363
211 224 231 259 306 337 512 499 525 484 442 429 424 374 351 342 348 324 320 329 333 334 322 323 336 337 357 377 370 364 435 436 423 415 423 426 371 369
221 227 274 313 363 510 499 485 444 416 418 403 359 347 344 342 332 321 318 315 315 315 322 329 336 344 388 408 390 396 440 408 407 425 439 371 367 366
232 273 313 371 494 498 460 422 405 408 374 351 350 345 332 330 320 318 307 299 312 311 312 306 323 333 383 392 394 379 441 431 398 363 366 365 368 372
273 311 430 485 499 447 404 397 401 368 346 334 333 330 323 320 307 315 302 302 296 299 301 308 318 337 389 373 413 403 386 362 360 364 368 420 500 441
309 364 481 500 444 395 390 388 364 342 333 328 326 324 315 308 304 301 303 288 295 290 287 289 316 329 388 305 381 386 358 357 363 369 498 433 415 561
449 485 495 470 395 395 383 360 351 338 324 325 333 312 313 295 301 300 293 292 291 290 295 295 310 323 386 301 407 361 355 363 362 490 420 407 586 573
496 488 479 387 397 381 359 351 324 325 325 317 313 314 302 295 301 292 294 293 296 289 288 294 297 314 383 292 382 367 354 345 358 552 405 396 610 574
521 478 388 365 346 328 320 320 313 315 311 296 298 302 306 305 299 286 289 290 293 290 287 285 289 309 371 301 361 363 344 355 351 390 421 402 392 411
484 404 355 339 330 325 313 310 294 279 278 291 300 299 275 266 266 264 269 268 283 299 287 287 279 299 325 285 341 375 288 288 347 345 355 386 407 408
400 360 335 321 313 307 301 291 288 279 293 289 293 265 266 261 262 265 286 279 276 277 295 286 281 290 308 280 295 279 350 279 277 354 345 344 346 349
363 331 318 311 301 297 289 300 345 291 369 366 370 368 363 251 343 367 317 323 313 286 275 288 287 284 306 339 290 284 296 345 287 360 371 368 368 369
332 315 308 300 295 290 306 326 315 285 317 316 369 359 349 355 352 355 367 444 311 289 277 277 284 277 295 347 359 290 289 290 304 299 361 358 359 359
317 308 298 291 286 280 285 289 270 380 383 317 379 377 369 355 344 311 347 419 439 411 288 276 282 284 285 313 320 289 339 286 319 325 329 367 355 356
307 297 289 296 277 268 298 317 313 316 374 381 374 368 361 353 347 341 391 396 416 432 300 283 282 286 283 303 340 275 285 286 287 328 370 336 361 360

GFSNE_2pvu_pres_042.txt.gz
Presure
186 186 195 198 205 222 275 221 233 284 281 260 229 230 214 162 169 212 192 196 213 227 247 249 312 315 281 274 252 237 225 221 219 216 218 214 217 220
190 166 201 200 226 265 212 275 278 254 253 88 150 146 172 217 155 244 254 315 483 569 584 597 603 603 596 587 487 486 486 492 495 226 246 233 226 167
197 194 213 228 260 164 283 262 244 237 222 205 182 114 83 248 292 496 546 536 519 507 270 518 515 519 526 523 518 519 521 285 537 554 535 466 480 436
198 214 212 251 255 284 213 241 225 207 181 227 154 243 275 533 544 526 505 485 472 446 467 463 468 469 470 475 478 475 467 470 490 522 512 521 532 444
214 241 228 253 276 191 219 218 214 213 235 241 261 343 563 619 506 477 461 447 449 464 470 453 418 411 403 389 385 407 453 462 481 462 458 471 495 505
252 213 149 276 238 199 213 189 169 236 244 293 357 567 551 470 451 450 454 454 438 392 368 367 362 352 353 344 351 358 356 358 363 369 428 470 463 459
169 167 265 229 177 202 214 230 238 256 321 487 522 477 446 438 445 413 397 376 372 341 339 339 348 349 354 358 363 362 358 353 358 354 354 361 371 382
275 234 200 164 214 218 227 243 278 348 522 498 447 437 432 393 373 369 374 340 340 346 328 338 333 335 335 341 357 357 371 368 382 383 385 366 432 357
228 171 169 159 164 234 246 284 386 505 477 439 443 405 373 361 357 356 345 341 334 324 312 319 311 321 326 335 368 406 403 405 385 378 371 360 356 386
189 189 198 217 240 243 300 483 510 463 425 431 389 368 353 354 351 336 322 326 330 320 307 309 309 313 321 326 408 394 398 398 397 399 442 441 439 428
200 214 193 232 254 321 513 517 457 407 415 394 368 356 353 338 332 320 314 315 310 310 311 307 301 293 304 330 394 409 411 413 416 421 426 430 435 437
205 221 230 261 339 528 513 461 401 405 394 362 350 350 345 334 333 322 306 301 293 295 293 299 299 290 286 335 380 417 376 390 373 365 358 356 362 367
216 235 271 455 577 503 444 396 407 379 363 353 345 326 331 330 324 322 304 305 289 288 296 292 294 298 309 330 390 405 378 355 355 353 360 379 408 405
237 301 449 547 505 473 389 402 362 348 335 337 332 332 324 319 316 314 305 308 306 294 293 300 297 291 306 329 358 335 374 360 360 361 424 411 407 434
301 476 531 504 480 387 359 343 328 331 329 310 293 288 283 285 283 293 314 307 279 295 301 300 300 290 305 324 287 371 361 356 318 405 409 404 600 608
486 513 505 473 388 355 340 330 323 304 296 293 292 288 290 302 303 300 279 276 274 275 275 282 302 296 303 320 319 344 353 286 354 408 403 410 571 590
507 515 457 385 350 338 330 323 303 301 296 303 326 362 342 343 339 277 268 268 262 275 281 279 291 298 301 306 339 333 275 286 344 393 442 388 402 487
539 445 381 350 334 321 312 304 297 299 309 323 320 322 326 328 348 366 345 342 251 321 292 284 281 300 298 310 285 329 301 287 384 347 376 400 426 417
434 378 346 330 317 309 300 292 284 277 317 319 415 401 348 316 370 360 364 365 357 373 331 300 283 296 294 310 289 281 299 280 381 384 363 356 369 374
383 346 327 316 307 299 297 290 277 331 325 318 316 265 392 378 376 371 357 344 361 444 344 317 286 292 292 301 302 291 293 281 363 367 365 362 357 360
350 325 315 305 300 293 315 343 334 337 331 317 322 306 361 364 365 358 350 349 352 432 382 289 287 287 288 311 343 288 286 349 278 360 356 362 352 353
322 312 304 297 292 305 333 334 313 327 339 321 321 320 356 352 348 347 349 342 392 428 405 299 289 289 288 314 279 351 283 340 325 354 359 355 353 356
313 304 296 293 295 329 327 308 306 340 332 324 381 372 359 350 346 348 384 386 397 414 401 302 287 290 287 322 280 284 283 364 342 355 359 352 359 356

GFSNE_2pvu_pres_045.txt.gz
Presure
199 198 191 177 183 184 190 198 202 208 217 275 217 283 164 242 225 215 199 198 231 249 223 276 410 561 552 546 544 555 600 634 629 577 553 269 258 226
204 192 183 185 187 192 200 205 215 238 253 227 103 246 235 163 180 185 244 262 277 450 552 537 533 513 493 485 481 484 502 522 551 584 592 560 528 496
185 185 191 189 197 187 206 224 279 173 234 247 234 164 162 208 246 256 276 253 553 208 488 485 483 484 477 476 481 483 481 477 476 270 512 527 535 541
189 191 139 200 204 215 233 257 157 292 242 174 158 160 231 243 258 397 504 474 466 459 483 410 402 399 385 386 379 383 388 392 410 436 477 479 471 420
191 156 196 204 222 242 217 264 260 237 222 158 191 235 239 318 501 462 450 460 440 416 387 375 375 354 346 344 358 348 357 350 350 356 372 384 433 476
197 201 213 239 268 200 293 236 229 212 176 221 237 251 528 461 452 459 416 401 387 391 357 350 349 347 342 334 320 317 321 331 349 363 364 365 368 373
206 225 267 224 298 273 230 220 185 212 233 239 267 523 448 444 419 394 385 375 369 346 336 335 328 333 328 330 326 327 328 346 352 355 365 373 374 369
260 213 298 289 206 224 218 173 226 233 245 493 516 440 430 393 373 361 371 357 341 349 322 328 320 322 319 309 309 312 322 355 402 402 408 406 393 381
236 285 252 229 213 221 200 224 230 250 521 511 433 434 391 373 360 351 347 341 339 329 315 312 316 317 307 303 304 306 322 398 410 415 470 405 401 389
271 234 214 217 214 220 211 232 265 512 493 422 417 415 375 362 347 342 325 322 323 333 312 300 303 307 303 307 308 307 328 397 409 380 398 414 445 417
218 207 214 206 231 223 235 468 517 480 410 425 393 380 371 364 347 330 321 326 314 314 313 304 302 298 303 302 299 312 342 384 309 306 309 361 371 382
213 210 211 225 227 240 541 522 478 399 371 354 344 340 338 329 331 335 338 324 318 304 305 307 305 295 303 309 291 314 346 296 367 352 346 349 361 366
207 213 218 229 245 572 514 453 387 369 350 338 331 315 307 302 296 292 294 292 302 318 312 301 304 303 310 297 292 314 390 356 355 356 354 332 322 414
213 221 231 248 569 503 429 384 360 342 335 326 314 308 303 304 309 314 314 300 314 279 299 283 267 281 299 304 291 303 291 349 352 367 306 403 399 464
221 228 389 563 488 414 380 355 340 329 319 312 306 302 304 334 333 306 283 341 393 301 271 266 277 286 287 307 296 310 360 328 363 291 421 385 429 565
229 268 567 475 408 376 353 342 328 319 310 305 292 279 328 324 321 339 322 321 329 384 267 254 267 287 295 300 301 304 356 286 310 309 424 382 413 448
311 574 466 407 370 351 340 332 319 308 308 306 290 339 337 319 324 332 390 377 374 364 372 395 350 299 296 296 301 340 292 374 288 338 394 405 383 414
561 463 410 365 346 334 324 315 307 305 337 351 351 341 336 328 332 376 388 388 370 354 363 370 376 331 304 296 302 367 291 362 355 347 380 382 380 378
482 408 369 346 334 321 311 302 300 342 350 357 307 347 344 332 355 363 377 374 367 344 357 376 352 324 298 295 291 291 276 284 368 366 361 371 380 394
411 369 345 331 319 308 302 310 340 322 307 315 410 396 388 382 366 363 356 354 355 359 435 362 316 311 295 297 309 284 345 309 362 359 342 349 361 374
371 345 329 318 305 300 317 340 310 308 323 388 386 379 379 368 359 354 349 348 351 352 427 359 311 299 295 300 288 274 349 352 350 356 350 340 341 356
345 330 317 302 296 309 327 304 315 328 362 352 350 350 351 349 349 355 346 371 347 392 425 317 300 291 294 315 287 276 332 356 352 352 348 342 339 333
332 317 301 294 308 321 306 312 328 363 351 344 354 374 367 367 370 370 356 379 389 399 375 305 298 291 297 354 287 283 341 360 356 352 351 343 362 375

GFSNE_2pvu_pres_048.txt.gz
Presure
191 198 203 201 199 201 205 212 180 188 184 190 198 204 207 205 141 235 289 263 202 152 202 182 227 250 265 515 513 515 513 516 520 526 528 534 541 559
197 202 201 202 204 210 191 186 190 154 195 196 123 246 238 230 285 268 235 211 213 227 242 258 408 498 497 490 489 493 495 494 491 490 505 509 506 510
200 203 205 207 210 186 190 192 197 201 206 256 245 277 278 264 241 223 222 231 199 260 412 489 476 434 430 424 415 412 405 399 400 398 402 413 428 475
203 203 211 192 189 147 198 197 201 240 259 221 270 244 234 219 217 231 230 258 461 464 474 425 401 391 380 372 368 353 352 355 358 360 362 359 374 381
207 208 188 178 198 195 200 210 250 225 287 252 242 226 218 221 231 239 298 449 453 425 413 388 379 372 350 341 337 334 332 334 330 336 336 342 348 364
197 183 194 197 196 204 259 236 262 275 244 241 225 211 227 235 262 461 436 433 401 385 388 363 353 343 341 337 317 318 316 312 314 317 317 329 342 360
193 196 194 200 236 232 223 297 254 241 220 221 216 227 248 263 435 421 413 385 374 377 369 348 346 327 332 334 316 315 318 311 313 310 316 323 410 403
192 195 211 270 219 284 280 241 230 224 217 226 231 254 448 434 421 416 374 362 345 363 348 335 338 324 326 321 310 315 310 306 305 311 315 409 420 418
204 272 214 291 290 250 232 216 225 218 227 243 257 444 431 390 397 383 370 361 353 345 342 318 330 328 325 316 305 304 295 300 301 308 312 398 385 386
239 237 311 278 236 224 218 220 222 227 243 370 433 405 373 354 346 333 328 313 329 337 343 324 335 325 320 317 308 308 305 310 304 302 342 393 310 366
280 316 246 225 224 226 217 220 232 247 425 414 383 369 355 346 336 316 307 302 297 294 297 288 306 323 318 318 317 317 319 310 298 317 346 359 359 367
274 232 217 224 218 217 221 235 249 440 394 369 359 354 342 332 324 312 307 298 304 296 301 291 307 295 311 308 300 294 308 310 302 326 380 353 350 356
223 217 217 212 216 221 238 250 422 389 364 352 345 334 326 319 316 306 294 316 323 316 318 318 334 315 293 277 286 283 303 308 312 328 307 315 353 329
214 216 211 217 224 244 390 417 381 364 350 338 329 320 313 310 335 337 325 353 342 318 382 333 324 312 300 267 267 290 297 298 308 335 346 337 352 351
209 213 218 226 244 359 412 374 358 347 337 326 315 304 330 338 364 349 358 321 239 340 403 382 320 331 380 267 266 289 290 302 314 384 290 355 390 394
205 216 227 251 460 406 375 356 345 334 321 308 304 353 345 322 318 317 354 352 343 328 408 382 370 368 376 348 294 295 289 302 324 300 347 366 393 379
218 229 290 462 401 372 354 343 331 320 307 321 347 327 316 320 419 413 401 388 374 382 387 384 361 363 367 355 329 301 299 348 288 339 342 361 386 387
229 318 435 398 369 348 337 327 315 306 331 327 315 325 370 384 392 392 387 373 362 371 370 359 351 360 356 328 308 296 316 289 358 352 344 359 371 382
321 461 399 367 348 335 325 310 305 326 318 309 337 362 361 361 353 377 370 363 366 358 356 351 353 356 322 308 295 307 293 302 346 338 340 356 362 381
472 404 368 349 335 322 309 309 323 313 315 332 364 358 351 384 383 353 361 355 355 355 353 420 354 334 309 295 303 322 279 348 347 334 337 351 367 374
413 369 349 333 319 307 311 321 310 315 358 370 367 359 354 371 376 380 374 354 353 353 341 418 349 310 294 299 350 284 343 343 347 338 340 342 349 366
370 349 332 315 305 310 317 314 314 350 359 359 359 371 370 364 364 367 366 375 346 346 405 356 310 292 296 340 333 281 351 350 348 345 335 327 335 348
349 333 314 303 303 315 315 248 349 349 353 358 366 380 382 379 384 394 405 387 383 376 416 314 297 295 310 285 283 315 353 354 353 354 370 358 329 329

GFSNE_2pvu_pres_051.txt.gz
Presure
185 182 188 186 178 185 187 198 203 208 200 211 199 194 194 200 201 206 216 232 303 234 292 272 241 81 206 225 237 237 79 298 505 507 508 508 515 527
185 187 183 186 184 189 194 203 206 212 217 183 188 201 204 205 216 241 259 230 304 267 217 213 215 232 234 260 411 472 458 447 441 445 450 461 473 489
183 184 183 187 190 186 200 212 213 196 194 198 201 206 214 263 263 307 306 270 224 221 222 236 250 277 462 440 410 413 408 402 396 394 392 391 390 393
187 180 183 188 191 199 208 211 195 158 200 201 209 188 252 300 296 262 219 231 225 235 250 274 452 430 406 389 387 386 374 366 358 360 67 357 363 362
181 181 185 192 203 212 191 197 194 203 206 224 249 236 289 274 234 227 217 236 252 268 438 430 407 391 378 375 363 355 350 340 349 343 339 334 332 331
183 186 192 201 205 126 195 196 203 221 253 221 298 277 257 214 217 227 242 257 351 432 423 394 385 373 364 360 347 334 330 328 331 333 327 323 319 322
191 191 199 200 196 193 201 210 254 226 283 281 266 232 208 224 233 255 262 402 375 386 402 372 373 361 361 343 339 333 319 318 317 316 313 312 312 313
193 202 196 188 196 203 130 218 302 281 274 252 232 216 227 237 258 408 386 367 349 355 351 329 324 348 358 351 346 323 318 325 320 309 314 309 310 310
199 192 194 193 237 239 230 290 273 260 239 227 225 233 250 305 393 373 358 350 342 339 326 308 314 315 307 303 308 343 328 317 318 314 312 307 310 318
191 197 229 254 217 290 281 268 249 228 216 228 236 253 408 384 369 358 343 328 321 320 319 300 303 308 310 317 306 300 323 324 316 315 315 317 320 316
210 233 218 253 197 274 263 233 224 217 233 241 273 397 375 367 359 344 327 317 310 306 319 298 292 289 294 320 350 320 305 312 317 285 294 305 312 304
225 222 259 287 264 255 248 223 222 239 248 412 386 369 362 350 336 326 320 308 353 355 365 354 296 347 321 328 316 339 326 313 269 279 286 296 313 324
250 265 272 254 251 239 228 236 243 315 405 379 363 357 341 329 320 323 360 350 334 322 323 320 317 338 345 284 367 332 346 308 269 275 290 303 319 322
288 257 249 243 223 235 244 239 423 395 373 361 350 334 321 317 342 332 331 333 338 336 368 358 365 342 331 391 369 326 334 320 265 274 298 309 318 333
243 246 230 227 240 238 294 418 387 367 356 342 324 316 331 329 327 326 377 381 407 417 413 395 395 391 387 375 362 317 365 273 283 299 306 316 295 357
235 221 235 237 235 352 417 387 365 353 338 319 313 330 327 325 352 377 369 369 387 393 399 378 389 388 371 362 365 370 344 330 328 307 314 296 358 356
231 233 231 325 348 415 384 362 349 334 316 317 330 325 326 384 375 368 365 388 365 374 371 374 379 363 361 360 363 342 327 315 300 324 319 355 351 358
226 281 339 412 419 381 358 345 328 313 319 324 326 342 374 371 373 371 379 395 362 366 361 361 363 354 353 358 332 320 309 306 324 323 353 348 349 363
301 343 342 426 378 357 343 323 307 317 322 322 264 353 372 375 377 375 368 373 382 360 353 356 356 353 358 322 316 304 311 292 312 354 334 344 353 371
326 377 437 383 358 341 320 306 316 323 319 254 347 362 378 397 397 381 372 368 371 367 352 355 355 365 322 311 301 320 294 347 334 350 340 345 356 378
442 447 385 356 336 318 305 314 323 309 278 340 354 372 413 430 424 405 385 378 376 370 356 348 383 317 306 301 335 288 336 348 355 336 350 334 330 342
466 389 356 335 316 304 314 320 281 335 332 350 366 414 392 394 400 407 423 426 407 364 347 411 311 299 297 337 294 350 347 357 348 342 327 309 313 330
394 356 335 314 302 312 316 315 332 321 348 366 428 389 399 420 430 434 424 440 424 397 410 308 295 300 341 289 363 342 359 362 353 337 318 312 329 320

GFSNE_2pvu_pres_054.txt.gz
Presure
221 223 219 216 209 209 202 195 198 187 181 190 188 192 195 205 215 211 206 207 211 214 221 239 292 324 301 223 248 232 106 226 224 225 231 238 244 251
221 219 221 213 210 211 207 200 196 195 184 186 190 193 190 211 205 211 209 212 215 236 272 317 296 238 228 220 222 227 240 261 314 353 71 446 449 377
216 221 219 218 213 213 204 202 195 189 189 196 196 183 213 206 210 215 213 262 259 313 269 247 221 221 229 240 257 389 432 417 410 406 408 409 286 405
219 218 216 213 211 211 206 193 191 192 197 198 205 209 207 207 217 254 147 313 299 271 218 223 235 243 268 444 419 412 396 384 384 386 390 384 374 360
213 212 213 213 209 208 195 189 188 196 203 205 206 206 215 267 241 316 300 269 220 224 237 246 277 392 385 413 395 384 371 368 364 368 365 362 348 349
212 212 212 209 202 194 185 193 200 200 208 201 211 237 243 307 296 269 211 221 236 252 264 398 388 373 363 352 350 371 359 351 344 343 337 340 337 332
211 211 209 198 186 190 193 201 194 202 206 214 247 249 295 288 225 233 240 239 287 399 386 360 358 351 353 350 333 318 322 349 338 334 334 334 327 325
208 210 191 188 189 202 193 200 205 213 252 229 303 290 276 244 229 247 252 398 376 370 365 343 341 334 336 333 334 317 312 300 299 297 332 327 323 325
193 186 190 198 194 200 202 207 227 230 296 280 282 265 232 245 251 412 389 374 359 353 349 330 325 323 325 319 325 323 300 301 305 300 297 327 331 323
190 198 194 198 198 204 172 178 263 280 274 267 237 244 248 417 401 385 371 353 337 334 339 322 316 338 355 361 367 377 299 285 332 338 312 303 327 326
189 195 198 202 215 228 242 281 275 264 246 245 245 262 411 388 377 366 348 338 326 323 349 342 332 339 329 331 345 378 368 343 341 325 341 324 308 323
198 185 136 135 227 256 280 270 253 242 244 246 425 400 381 365 354 344 337 333 350 335 343 338 345 448 329 334 350 342 349 346 289 323 323 347 330 306
142 132 136 140 144 277 256 242 240 244 315 417 392 372 355 345 335 326 346 345 342 353 399 391 376 418 423 400 366 398 419 340 399 367 324 326 367 272
137 136 140 205 264 239 237 239 254 373 410 388 369 352 338 330 326 336 337 371 397 396 385 373 375 404 397 388 382 397 405 390 372 346 318 364 327 267
249 144 252 235 240 236 237 306 344 409 382 364 348 333 324 334 334 332 364 379 373 387 389 395 381 383 378 373 385 396 373 370 386 359 358 345 339 326
145 229 171 231 230 257 323 450 409 379 358 342 328 321 333 329 341 320 345 391 391 373 393 389 371 369 364 380 377 369 360 368 361 342 331 323 322 354
227 225 215 246 282 344 446 406 377 353 336 324 325 331 328 344 355 368 388 426 402 376 378 376 373 363 365 360 355 373 364 341 326 313 321 298 356 344
213 239 290 323 490 443 401 372 350 331 320 329 329 333 341 362 371 396 424 442 410 380 375 364 360 363 357 354 362 345 326 311 308 305 357 336 341 359
280 314 336 548 442 397 367 345 324 317 328 329 338 347 365 391 435 391 394 406 416 387 378 358 358 357 351 356 331 320 301 353 315 356 331 346 343 341
322 334 545 454 392 361 339 321 311 328 330 339 357 374 431 406 409 417 413 411 426 396 382 359 356 395 348 317 307 310 293 346 362 354 331 324 315 319
333 552 468 392 357 335 319 311 328 332 341 360 389 421 417 432 438 443 445 436 433 414 357 354 383 325 308 305 340 289 348 370 343 324 314 318 322 323
489 481 397 354 333 316 308 325 329 341 361 404 414 431 452 458 466 477 466 436 459 356 405 329 310 304 330 285 361 352 366 370 335 302 322 312 311 316
503 403 360 335 313 306 323 328 337 361 415 415 437 475 495 501 515 459 453 408 397 324 309 302 327 281 292 369 365 369 374 364 327 314 303 302 299 320

GFSNE_2pvu_pres_057.txt.gz
Presure
275 139 253 242 240 234 228 223 223 221 215 223 218 214 215 217 215 210 205 199 189 201 148 211 206 212 207 225 264 310 303 299 290 235 73 244 242 232
270 264 253 241 233 233 228 222 220 217 226 218 218 217 214 214 211 205 193 196 203 208 211 208 215 236 310 297 287 283 276 260 236 232 231 232 239 250
236 255 251 239 230 226 221 218 218 218 222 219 221 217 214 211 202 190 199 204 210 205 215 237 316 296 281 270 262 232 228 236 249 376 431 398 419 422
257 252 243 232 227 221 217 216 216 220 217 217 220 217 205 192 196 204 209 206 217 232 313 288 277 263 253 224 242 403 385 391 391 400 401 392 394 398
253 242 235 227 221 216 216 217 217 215 223 221 211 195 194 206 205 206 215 237 286 304 256 261 241 259 400 403 393 383 373 367 352 353 378 375 376 376
243 236 226 220 216 216 213 217 217 220 214 200 196 208 203 177 217 236 259 302 281 256 227 267 409 392 385 377 371 368 360 350 345 334 335 350 366 364
233 226 219 215 214 217 214 217 209 200 199 203 201 210 213 233 239 302 289 257 244 271 401 395 384 371 369 367 362 358 350 344 335 331 322 322 322 361
221 215 213 215 213 215 202 195 199 200 203 209 148 182 248 277 296 261 226 269 405 402 391 376 369 352 349 343 345 346 337 327 318 312 318 313 318 316
211 213 211 212 198 192 194 194 202 189 143 142 213 169 296 268 245 256 308 404 386 379 377 358 338 332 331 329 342 348 352 358 365 365 324 316 308 304
206 202 190 190 190 196 199 167 141 189 134 194 230 267 246 257 271 423 401 383 371 357 355 341 336 339 338 335 346 344 338 336 338 341 370 372 321 286
187 187 187 200 196 191 136 210 160 135 261 245 241 251 266 408 413 396 377 366 350 338 346 346 347 408 404 388 400 407 406 452 386 329 321 351 364 354
197 195 196 207 136 133 227 141 134 275 232 237 258 322 429 396 383 371 361 342 339 338 347 349 391 411 396 374 388 312 422 431 415 386 349 356 327 345
200 203 211 154 124 142 129 250 233 230 243 260 451 420 391 374 360 346 339 341 343 344 361 393 396 371 376 377 377 399 417 415 412 411 418 406 371 346
207 220 210 139 219 214 184 228 228 256 336 443 413 385 365 349 335 334 337 339 344 361 385 401 427 395 377 383 379 387 397 397 401 396 384 379 381 373
228 243 190 185 219 227 221 242 262 464 436 404 374 357 340 330 331 334 339 349 367 382 406 433 446 385 390 371 370 377 385 401 366 366 369 369 365 319
131 230 180 229 177 236 266 343 471 431 395 365 348 332 327 333 338 352 366 382 409 427 435 413 416 389 370 368 371 379 369 357 362 361 354 347 340 328
220 138 219 196 254 314 389 462 426 391 360 343 334 332 339 356 370 392 422 419 411 410 398 426 394 385 361 364 364 353 350 370 361 346 324 315 335 356
191 227 255 315 327 503 456 419 384 354 338 329 339 359 380 414 432 426 433 436 439 435 414 419 379 370 356 358 353 366 357 342 316 313 360 311 359 335
240 307 307 332 540 459 412 372 345 332 329 347 381 414 444 463 481 472 462 455 457 450 438 388 372 358 352 357 345 328 315 304 327 284 357 336 329 333
304 315 338 530 457 405 363 340 323 321 366 396 442 457 480 515 520 508 492 484 455 446 389 362 358 357 339 319 309 319 341 315 364 336 327 318 320 323
323 339 488 463 397 358 336 316 330 379 417 438 443 398 366 417 417 416 414 408 364 354 348 337 320 309 308 361 348 359 363 374 333 317 308 306 312 313
356 483 468 398 357 332 309 326 384 403 352 340 329 323 321 322 323 323 321 318 311 303 303 346 359 298 338 359 368 377 389 314 314 298 303 296 296 294
484 480 402 359 331 307 323 375 362 321 312 308 305 304 302 298 299 305 344 341 341 341 278 355 357 368 374 380 336 320 308 299 291 303 301 310 303 310

GFSNE_2pvu_pres_060.txt.gz
Presure
224 228 226 141 229 226 229 203 225 261 253 245 239 231 231 231 228 227 226 226 227 231 233 229 229 228 216 194 200 208 207 208 216 224 244 299 291 287
223 231 230 219 237 228 228 231 264 258 249 241 235 228 227 224 223 225 223 222 226 226 229 226 211 200 205 209 207 213 223 263 297 284 277 275 276 275
222 223 234 226 230 231 235 229 261 252 244 239 233 228 225 223 219 222 223 222 225 223 206 204 207 206 210 214 289 309 286 274 269 269 263 254 309 406
224 228 237 230 218 217 222 283 251 243 239 232 229 226 219 221 224 223 221 214 199 205 206 207 219 228 315 298 266 248 265 254 250 408 406 401 390 387
226 221 190 235 223 220 266 251 241 234 231 228 221 222 224 223 213 203 189 202 205 220 227 257 310 278 255 254 254 378 415 402 391 384 375 373 369 366
228 233 237 223 222 254 250 236 229 223 220 223 222 215 205 200 191 199 203 182 188 146 304 257 251 243 343 415 399 392 387 386 379 366 362 359 355 356
235 238 218 215 255 242 229 219 215 219 212 206 199 193 194 204 213 162 189 134 266 256 246 236 279 414 393 385 375 374 373 366 355 343 335 335 341 343
234 211 226 258 231 217 215 210 205 198 195 203 200 205 219 145 247 135 136 243 179 250 280 417 404 380 367 360 356 356 356 354 343 332 330 324 324 329
215 236 261 219 212 212 198 193 190 197 206 216 227 143 242 134 144 232 239 249 275 423 406 392 375 356 348 339 341 352 356 359 358 375 351 348 344 345
241 220 207 198 192 192 189 193 204 216 228 239 187 132 134 235 241 252 274 434 413 391 374 371 355 339 332 333 342 361 394 444 431 409 406 376 347 339
197 187 184 189 186 195 205 218 232 207 198 137 219 247 245 247 272 426 425 398 379 363 348 349 338 342 341 336 359 397 419 436 414 394 387 391 396 367
185 188 186 201 208 220 237 254 260 169 170 235 237 181 271 460 439 406 390 373 357 343 335 349 345 353 360 370 387 400 426 426 393 385 391 420 418 413
195 203 210 223 243 274 255 229 230 228 230 232 258 361 453 412 388 373 360 351 346 353 357 369 375 387 415 441 435 414 407 403 381 399 406 400 396 398
207 219 256 246 227 223 236 227 226 225 264 310 424 428 397 374 357 347 345 360 372 385 393 415 444 443 440 411 433 391 399 385 386 382 384 390 399 404
242 160 224 214 231 219 185 232 270 318 343 429 413 381 361 348 343 375 395 420 437 433 432 432 445 432 408 427 387 388 375 385 388 376 390 384 382 379
227 204 226 217 222 232 251 319 331 353 439 400 371 350 345 395 436 465 476 502 486 465 449 454 459 421 420 389 381 373 373 370 364 360 367 376 370 369
219 221 218 229 256 319 325 341 406 428 393 366 346 401 449 375 437 484 492 523 499 482 458 455 440 410 389 367 370 355 357 358 363 362 360 345 341 334
214 225 254 291 330 334 344 455 418 386 356 337 438 389 387 350 369 374 457 471 476 469 453 439 381 363 361 350 356 360 357 357 333 324 317 313 318 356
236 290 305 333 342 358 469 409 375 348 374 364 332 320 319 316 315 322 346 359 363 366 363 365 361 353 351 339 329 330 332 309 312 359 363 372 343 340
297 328 345 336 478 470 402 367 344 353 359 328 316 311 307 304 306 315 306 311 316 318 318 317 317 321 328 345 358 342 312 374 365 328 319 319 316 316
333 335 358 493 463 394 363 339 329 361 326 313 305 305 335 344 344 345 344 347 346 336 320 322 355 362 368 377 382 374 323 318 312 308 303 305 301 302
355 563 534 452 386 357 335 313 381 330 268 304 300 343 332 319 318 336 278 340 367 373 378 375 338 323 321 320 313 311 301 304 290 301 303 306 303 298
694 539 436 376 350 329 304 384 341 267 216 295 302 332 320 336 341 347 365 358 323 313 311 312 303 301 303 301 302 297 290 297 299 312 313 309 317 331

GFSNE_2pvu_pres_063.txt.gz
Presure
214 194 221 220 217 217 210 213 213 226 226 232 226 235 236 232 232 259 255 251 244 243 242 240 241 238 234 230 231 232 229 231 233 227 222 216 209 198
218 223 178 222 218 215 202 219 225 232 233 230 225 230 217 235 266 252 246 242 239 239 236 232 229 229 233 229 226 224 219 215 209 209 212 215 221 220
231 227 224 220 217 217 217 223 230 229 232 232 229 221 233 266 248 241 238 234 229 226 226 228 225 218 210 207 203 204 207 216 221 241 275 278 272 270
231 227 225 226 223 221 223 224 225 231 236 231 223 233 272 242 236 229 218 221 224 220 211 205 202 200 201 206 182 143 154 176 271 260 255 255 253 402
224 223 220 223 224 226 228 230 231 236 235 217 246 272 232 222 219 217 206 203 201 200 197 203 211 201 138 138 166 230 253 251 238 393 417 404 395 387
232 226 229 229 228 226 230 232 238 227 222 249 238 216 218 206 204 199 194 195 200 212 250 298 197 135 181 255 261 253 338 424 415 398 386 377 371 368
217 221 224 228 230 231 238 231 220 237 245 214 212 203 201 197 200 206 213 251 295 264 139 136 165 251 244 447 428 415 403 396 386 374 364 353 347 346
225 227 238 237 242 244 221 232 245 211 204 199 198 199 207 218 228 294 256 234 131 136 245 261 213 449 428 404 388 378 377 372 360 350 345 347 344 347
245 241 247 238 224 233 232 207 201 195 196 195 212 222 240 260 230 223 133 159 243 275 349 436 420 396 377 368 356 348 350 345 346 354 355 358 366 421
240 230 225 232 219 204 194 191 199 198 213 217 242 253 230 236 168 245 252 292 413 432 401 388 374 359 346 331 337 341 353 359 362 375 381 389 413 426
227 229 205 199 189 188 197 200 210 215 247 246 219 228 178 241 250 299 367 436 401 383 365 365 353 366 366 358 357 356 363 371 390 404 425 439 413 405
202 192 186 188 197 202 206 218 243 240 213 215 233 174 246 299 363 444 413 381 386 404 413 433 428 431 431 418 416 403 409 424 444 458 465 403 394 391
189 192 196 203 211 247 245 236 214 211 228 224 247 265 333 394 417 378 406 455 398 417 485 531 522 492 478 476 445 419 419 429 450 457 406 382 379 383
196 209 217 244 239 227 208 218 223 194 244 281 327 358 435 386 387 463 386 343 383 496 502 525 512 486 472 459 445 421 419 429 414 383 373 375 375 383
215 240 234 221 206 225 218 226 241 284 307 348 371 415 371 384 372 338 331 325 333 390 489 505 487 463 446 431 423 420 395 389 377 367 371 378 389 390
230 218 206 223 221 222 239 282 302 327 355 445 396 384 344 352 331 324 319 314 315 354 379 378 395 397 389 384 378 370 366 365 370 366 364 370 370 372
208 217 224 219 231 257 300 311 351 437 435 388 374 342 348 325 317 327 364 364 368 324 327 356 357 360 356 362 365 362 367 369 369 367 374 372 368 366
216 215 228 243 284 307 329 369 475 410 400 354 360 343 321 312 344 348 349 356 360 359 364 352 348 344 319 320 320 321 332 315 307 324 336 341 340 331
214 243 263 301 315 361 530 467 416 385 342 334 341 318 307 348 335 342 345 289 279 382 383 383 377 373 378 386 322 378 367 339 336 332 335 336 339 350
254 284 309 358 589 513 410 398 358 340 327 339 316 305 286 334 348 343 369 373 364 317 317 319 318 317 317 316 312 315 310 308 307 306 304 303 307 307
291 321 620 580 420 414 362 352 318 371 338 313 304 287 336 333 337 362 329 313 313 313 301 299 302 301 296 299 302 299 302 302 300 310 315 315 311 314
351 676 509 428 372 361 315 293 341 344 311 303 296 334 337 333 348 326 297 311 309 299 302 310 302 297 295 292 300 302 307 306 312 301 310 317 325 323
395 440 385 344 315 307 324 331 349 315 303 295 301 335 331 328 346 312 309 309 290 299 306 295 292 288 290 304 301 303 307 314 321 362 365 403 438 434

GFSNE_2pvu_pres_069.txt.gz
Presure
220 218 207 214 221 217 215 219 212 221 222 220 217 220 235 249 245 245 239 243 240 235 235 236 236 232 242 244 245 242 230 267 249 236 231 230 230 231
223 218 218 218 215 222 216 209 214 226 229 247 251 247 248 244 250 245 237 236 228 231 235 244 250 252 249 243 239 256 240 229 226 225 223 221 220 219
220 216 213 215 219 227 199 269 197 240 251 246 244 245 235 234 230 233 232 228 233 240 242 254 254 242 246 249 225 223 219 208 206 205 203 206 206 208
221 223 228 242 248 233 224 138 216 142 149 228 218 220 218 226 232 222 233 240 246 252 257 242 246 225 219 203 203 203 203 207 207 220 261 230 263 261
242 248 235 144 207 176 135 142 150 220 216 241 237 232 224 233 234 244 245 254 246 238 238 210 202 205 215 236 254 263 259 255 247 233 232 232 236 240
223 240 213 243 221 133 167 176 265 272 233 262 255 249 243 249 241 255 240 238 211 207 202 201 221 238 257 253 245 235 246 272 303 437 444 274 139 139
256 251 251 253 236 242 235 234 252 251 254 246 245 242 237 255 238 230 206 208 195 215 224 251 252 241 225 249 268 288 401 424 410 395 386 376 367 363
241 257 253 258 245 233 246 266 267 245 239 236 240 248 233 223 199 200 200 227 229 247 249 237 228 244 264 279 408 402 388 375 370 370 360 355 384 392
250 256 254 255 254 253 247 240 240 243 237 227 224 212 197 199 197 213 243 245 248 227 230 237 256 265 395 390 381 372 376 399 437 570 527 487 468 436
246 251 254 250 246 241 231 228 227 221 209 202 199 194 219 218 235 245 244 219 229 239 257 261 352 389 374 369 375 404 375 393 490 515 521 518 479 459
239 241 230 224 218 215 212 205 195 193 207 218 219 232 241 244 236 219 228 239 250 261 379 406 373 366 350 374 398 399 339 387 414 447 464 471 466 466
223 216 214 206 199 192 190 219 218 217 216 235 242 241 221 227 234 241 250 257 291 413 391 373 346 372 395 389 319 403 337 382 383 388 408 426 434 438
199 191 187 188 212 211 208 216 225 238 241 234 224 226 232 241 251 261 428 422 396 383 364 345 390 406 410 296 386 411 384 353 385 386 381 373 380 401
198 215 212 207 207 228 238 241 241 232 219 224 231 237 247 256 392 428 405 381 370 354 368 385 357 333 372 367 351 349 356 370 324 355 343 363 384 384
205 222 230 236 239 240 238 220 217 225 231 236 245 255 440 439 414 378 358 355 341 333 366 342 332 334 331 329 328 322 323 332 325 329 339 353 366 356
235 239 237 231 227 215 215 219 227 234 245 294 459 435 399 372 352 364 343 327 372 354 336 330 320 321 305 313 306 308 313 309 315 318 321 320 325 332
233 230 227 218 223 223 230 231 251 425 413 364 352 337 322 315 351 331 318 364 361 315 312 317 315 310 297 294 298 303 304 312 316 307 313 322 314 320
232 228 225 227 230 238 320 361 407 366 339 331 321 345 355 334 323 319 351 371 325 312 298 298 294 299 303 315 332 327 322 331 347 348 354 351 348 318
227 228 228 238 323 332 416 376 346 326 321 309 375 347 329 317 308 351 351 344 306 298 306 292 286 288 298 323 346 350 344 330 308 308 306 307 304 378
219 249 323 319 337 395 359 336 321 312 338 370 341 324 316 307 346 344 368 305 298 300 292 288 298 320 340 358 319 304 304 303 313 319 310 315 311 316
306 330 273 315 392 355 331 317 307 301 331 348 326 315 305 323 343 350 334 302 298 286 286 307 320 302 302 295 289 283 265 269 278 273 287 301 305 306
276 282 321 330 362 334 315 305 295 295 335 344 317 307 300 340 337 364 305 307 287 289 314 312 300 298 288 280 281 263 280 280 277 278 313 306 299 300
265 282 332 365 346 320 306 296 292 317 326 344 314 305 297 352 348 312 295 286 288 310 304 295 277 279 263 264 262 262 265 260 253 261 267 339 329 320

GFSNE_2pvu_pres_072.txt.gz
Presure
210 203 207 220 235 228 219 223 218 232 220 219 212 216 220 222 249 274 255 249 246 240 242 238 225 229 231 229 230 231 237 241 243 253 254 251 242 232
206 215 227 233 221 226 224 219 230 221 211 214 227 236 241 235 237 249 223 216 213 214 214 218 224 228 239 249 248 247 255 258 248 244 247 246 240 234
231 228 243 204 227 224 221 229 218 214 216 227 231 210 141 165 145 197 228 236 241 253 256 252 253 256 250 245 258 246 245 238 214 205 202 203 204 204
221 220 229 224 221 230 233 199 223 245 196 228 215 223 219 208 217 233 243 254 272 257 251 249 243 243 255 244 239 201 204 203 209 252 226 256 258 254
243 239 240 237 230 223 229 248 237 251 252 247 231 182 231 242 252 253 256 257 250 248 247 246 253 244 208 205 210 227 237 264 243 236 231 235 261 266
236 232 231 235 243 243 246 248 260 245 245 253 247 257 249 236 265 259 251 244 234 241 239 218 205 209 221 245 257 251 237 241 247 258 272 292 396 417
253 254 250 246 243 245 256 253 244 251 253 247 255 248 242 260 241 236 234 229 217 203 207 220 232 246 245 236 240 243 251 263 279 355 407 393 394 422
281 258 252 251 252 238 250 241 253 252 257 242 244 258 243 232 225 223 198 193 207 231 231 241 246 229 235 238 253 267 282 327 398 380 373 417 410 380
276 271 266 250 251 255 251 258 265 249 243 233 225 221 212 194 195 221 212 220 234 243 246 226 227 229 243 259 276 327 402 372 399 429 397 365 353 418
260 253 254 255 256 246 245 231 226 219 217 205 193 194 204 223 218 234 241 244 247 230 233 225 239 254 267 344 392 390 435 436 427 419 397 359 410 399
251 252 257 233 227 219 215 205 197 196 193 213 222 221 234 241 244 250 246 229 230 227 240 257 270 381 381 371 407 426 383 374 434 419 413 341 302 394
216 213 211 203 193 192 194 194 219 220 226 233 239 243 247 245 223 221 219 229 251 265 435 410 380 370 344 377 361 352 343 335 330 336 339 339 358 378
198 199 211 211 216 220 222 229 234 237 240 241 241 234 231 232 229 237 263 342 431 410 385 353 347 383 364 339 328 330 317 319 317 321 320 325 319 335
216 220 225 225 227 230 234 236 236 235 235 237 237 229 235 259 372 391 361 342 335 322 337 341 374 345 326 313 309 314 318 313 309 313 314 317 314 319
227 227 228 228 230 230 235 237 233 232 226 232 256 352 405 379 351 333 328 383 358 340 324 357 327 320 319 313 294 298 297 308 325 325 322 339 325 316
218 222 228 230 233 233 230 221 223 270 346 305 320 372 346 332 322 338 347 335 323 363 366 322 315 312 302 304 300 302 319 325 333 345 356 350 367 380
214 221 232 233 234 215 229 305 290 373 394 367 341 332 323 312 354 334 321 316 355 366 325 317 311 313 302 316 321 340 347 339 322 311 322 318 309 314
219 221 229 219 218 335 279 281 397 375 347 324 320 310 332 345 330 320 314 357 358 328 304 305 300 300 331 361 326 312 303 300 302 300 298 301 304 304
221 233 212 308 299 269 283 334 373 341 323 311 304 294 345 324 315 307 350 347 357 314 301 298 296 323 310 302 291 289 288 286 289 284 282 311 307 303
233 221 252 300 261 275 281 380 361 327 311 300 295 353 336 317 308 305 342 360 317 307 300 302 325 302 287 289 286 269 278 268 273 274 270 299 299 320
223 235 339 261 260 280 280 384 352 321 306 291 297 345 333 313 302 324 350 315 302 294 309 320 297 273 279 263 257 263 265 256 263 254 270 285 312 328
234 270 281 254 265 280 278 378 346 318 303 285 351 339 329 310 297 358 341 306 295 303 305 291 271 276 260 265 264 255 268 262 268 260 282 272 264 305
255 335 258 252 267 275 279 379 344 316 298 285 359 339 326 305 302 349 316 297 295 316 291 274 278 256 271 247 254 256 276 274 274 285 262 277 304 297

GFSNE_2pvu_pres_078.txt.gz
Presure
224 220 222 218 214 212 213 210 212 213 211 203 210 191 198 213 215 224 224 217 229 223 238 231 226 228 229 238 251 256 253 248 240 240 248 245 242 246
227 222 223 226 226 227 224 225 225 223 219 219 222 233 218 219 225 224 224 229 225 225 232 228 225 231 263 210 230 240 245 246 249 246 243 220 271 264
235 244 246 250 258 272 265 264 253 256 247 247 243 223 229 226 229 232 225 226 224 231 232 228 230 247 265 255 248 246 246 259 245 249 242 245 242 240
293 292 272 275 270 284 266 254 256 251 248 245 245 239 242 230 230 230 234 236 232 230 231 253 256 259 257 249 253 258 245 257 254 250 245 219 217 216
352 339 327 333 350 301 272 257 250 248 236 247 257 247 239 237 230 230 228 240 243 245 251 264 260 262 261 254 256 242 206 203 205 205 219 221 225 229
385 357 343 341 318 308 312 293 299 264 267 290 283 280 267 265 267 271 271 261 256 261 261 258 255 231 204 207 211 216 222 229 229 235 245 252 254 248
308 299 305 299 293 290 280 283 287 292 301 298 286 280 276 268 272 267 264 268 253 211 202 213 217 222 226 237 242 252 256 258 250 241 237 218 224 237
292 294 282 295 295 290 283 284 297 291 289 287 281 281 277 264 257 251 194 215 219 232 237 244 248 250 251 249 244 241 238 239 245 250 261 263 276 294
199 228 232 233 235 238 234 227 224 221 214 214 214 230 233 235 238 239 239 240 243 241 237 241 238 232 237 244 251 255 260 266 271 282 314 380 367 374
225 222 226 227 227 229 230 231 231 228 224 221 220 222 225 228 229 232 234 233 230 233 241 244 253 253 260 267 272 287 308 323 367 390 415 380 365 352
228 206 215 219 220 218 219 222 224 218 218 222 227 228 228 229 231 227 233 238 247 262 276 280 295 304 306 298 320 388 402 379 361 380 356 345 335 335
217 219 217 216 219 222 225 225 220 224 225 227 227 232 232 244 229 238 243 273 308 274 278 302 364 357 363 378 374 368 349 341 355 344 336 339 313 304
216 216 219 213 208 216 218 223 226 230 230 233 243 240 229 241 278 303 289 269 277 364 347 333 338 360 354 340 341 335 335 344 337 326 313 328 345 357
230 210 221 217 212 220 219 223 227 232 242 232 232 248 306 296 274 259 276 364 345 328 322 313 330 333 329 328 356 354 333 330 322 327 355 312 313 311
234 205 219 214 220 222 226 234 249 265 230 241 361 296 270 257 255 374 358 338 321 310 353 335 322 318 354 372 337 321 295 313 358 306 301 273 281 292
229 214 218 219 224 229 249 265 227 235 240 320 259 263 256 261 395 365 338 322 305 338 340 322 312 346 376 334 314 292 305 320 294 284 272 293 277 281
224 222 222 221 226 246 230 227 235 251 285 269 247 273 284 288 382 354 326 309 301 349 331 316 354 364 325 312 300 315 312 294 269 258 270 276 283 266
227 224 222 222 234 226 227 240 248 256 282 256 256 285 279 299 379 349 319 294 348 343 320 306 357 319 306 318 335 296 289 270 271 279 267 263 274 268
231 227 219 238 222 232 242 249 263 294 259 252 281 276 276 344 373 348 317 292 354 340 313 351 329 301 296 323 291 273 273 274 271 266 264 264 263 262
235 216 217 230 237 244 240 261 322 279 254 270 280 272 285 350 367 356 311 314 356 340 311 366 307 291 299 297 271 259 255 254 255 259 254 251 255 265
238 239 228 242 238 245 246 340 241 252 280 279 276 275 302 356 389 364 305 323 290 338 305 356 291 303 315 278 262 253 255 253 248 253 252 255 263 270
236 232 242 242 262 289 313 265 244 279 272 273 276 279 350 338 343 363 311 321 311 340 318 350 304 306 273 271 257 261 251 255 255 247 257 257 258 262
217 241 240 297 315 312 268 245 274 284 273 278 276 290 354 333 364 358 310 298 363 325 331 347 317 290 287 264 260 252 247 260 258 266 265 256 250 253

GFSNE_2pvu_pres_081.txt.gz
Presure
248 243 233 221 235 229 231 242 251 266 287 276 262 256 250 243 239 237 233 231 228 239 226 222 224 221 222 230 225 220 229 225 230 235 254 127 256 242
239 228 232 231 233 245 257 291 266 245 250 253 245 238 229 252 260 245 240 241 240 224 220 223 225 224 230 233 227 226 220 229 230 243 260 256 255 243
229 226 227 238 253 294 233 262 315 343 328 314 280 289 269 251 245 243 243 238 233 234 230 223 220 219 232 230 229 227 229 240 242 265 253 249 251 255
224 228 237 285 270 229 227 336 329 335 307 335 314 277 282 257 263 239 239 232 242 239 234 249 232 240 239 238 247 245 242 265 263 254 259 264 258 260
226 232 274 256 234 269 219 348 327 317 316 307 305 299 292 283 275 266 252 241 247 254 258 255 261 265 262 267 281 275 272 255 247 206 205 205 204 203
237 270 250 236 211 228 243 257 307 296 291 285 286 287 290 292 295 306 300 304 304 301 301 298 292 289 286 248 224 200 222 226 232 236 238 241 243 248
269 253 233 214 233 232 218 258 234 220 235 237 235 235 233 235 245 238 236 234 235 235 238 237 236 239 239 241 242 241 241 239 239 240 239 240 240 240
252 232 219 226 243 228 212 237 226 222 221 227 227 226 224 221 216 216 221 230 229 223 235 240 241 244 243 244 243 243 250 257 265 272 273 273 271 276
240 228 205 237 254 229 220 219 224 226 228 225 225 227 238 215 233 239 240 237 245 252 241 241 238 243 254 259 262 268 278 291 280 274 278 283 293 294
223 207 212 226 251 239 222 227 225 217 225 223 232 234 236 239 238 250 247 232 241 239 241 254 264 280 311 319 330 297 276 288 316 359 361 399 389 388
216 206 227 227 244 244 230 214 226 221 225 230 235 242 247 251 253 233 235 247 374 325 305 279 281 260 275 284 298 355 360 344 335 358 353 353 360 349
213 225 222 224 246 242 237 213 225 228 236 241 249 254 239 228 231 248 345 286 260 272 270 277 377 360 343 348 360 344 356 344 336 329 337 337 335 331
218 224 215 219 227 241 238 227 232 231 231 237 232 226 229 237 253 304 278 259 264 292 294 359 342 331 319 331 349 347 333 357 361 344 329 327 325 325
223 217 214 237 245 240 233 231 232 234 239 228 216 233 246 272 301 281 259 260 287 289 371 339 320 310 310 335 327 329 370 351 334 314 346 330 307 307
219 211 225 245 238 230 235 230 240 226 232 230 237 245 268 310 281 252 265 288 282 386 359 325 305 296 333 320 315 369 337 332 317 331 315 298 278 268
208 210 244 234 231 233 239 243 228 232 230 238 252 255 324 250 263 270 280 278 331 384 359 312 294 342 323 314 365 337 316 298 331 300 278 268 266 260
212 246 234 233 238 242 231 249 238 228 249 288 301 327 261 260 281 272 272 282 358 381 357 306 362 339 316 361 336 309 297 317 302 275 268 274 273 273
245 229 229 244 233 243 250 220 228 261 316 327 303 254 261 282 275 277 285 345 344 360 359 303 365 332 312 361 307 299 315 296 274 271 262 261 265 255
227 229 231 230 247 248 239 235 238 277 244 264 266 268 285 286 273 279 284 346 337 369 363 319 291 320 330 335 345 308 282 275 265 263 254 257 260 255
232 231 228 228 239 257 232 240 256 276 248 268 279 285 293 270 273 280 293 343 330 397 351 318 333 308 351 314 316 284 280 259 262 253 250 252 248 257
225 225 229 242 262 234 243 249 283 279 255 275 279 296 273 275 274 285 304 348 331 399 330 305 370 313 356 297 310 273 269 269 252 261 251 251 251 252
231 237 248 257 231 236 244 275 292 252 256 275 255 287 270 278 283 294 333 363 339 398 326 292 401 316 358 301 313 275 263 254 252 246 252 251 253 261
239 251 253 231 244 239 258 300 250 264 287 256 287 271 273 283 291 338 377 378 333 390 316 297 375 318 312 315 297 272 264 256 258 254 249 256 262 253

GFSNE_2pvu_pres_084.txt.gz
Presure
191 194 209 229 248 240 241 228 238 242 296 267 238 256 254 313 298 282 270 255 244 229 232 222 218 224 235 244 221 230 229 228 223 223 216 208 223 220
194 225 237 238 241 234 227 237 234 270 272 245 225 223 352 328 309 289 285 274 268 253 252 247 248 236 227 239 228 226 236 218 236 237 221 225 230 226
208 237 239 236 237 228 237 232 267 266 240 229 247 226 321 318 317 318 288 270 268 274 263 248 254 241 240 231 231 229 244 235 227 226 227 230 226 237
260 236 246 232 229 230 228 261 260 246 225 243 220 230 270 311 314 332 304 302 271 269 277 268 255 253 235 232 235 239 248 233 246 234 237 246 246 246
236 242 229 228 233 230 272 260 247 230 234 233 229 234 239 243 231 239 241 249 303 311 311 306 296 271 275 272 271 268 258 261 256 264 273 305 282 273
237 231 228 231 236 264 270 252 239 216 227 238 227 219 222 235 238 227 225 226 223 228 227 228 229 230 229 230 232 231 230 229 228 236 224 222 233 232
223 228 235 239 278 267 255 241 220 211 224 247 233 219 227 224 230 232 237 239 245 247 250 237 257 252 246 244 257 257 243 240 248 249 248 246 243 242
232 234 237 294 280 263 240 224 207 223 227 246 244 232 207 236 236 247 250 241 256 240 234 237 239 240 245 248 262 282 287 280 272 266 263 256 254 256
227 251 252 273 266 244 229 209 211 218 227 220 246 239 226 227 232 241 237 236 233 237 241 247 249 255 283 328 291 273 274 280 275 278 276 278 280 280
269 266 283 268 248 231 214 211 220 213 238 225 246 238 240 240 238 239 239 236 238 242 251 299 309 299 291 278 277 303 302 344 376 375 370 369 380 364
251 277 260 258 238 206 213 219 216 220 243 231 241 241 247 240 223 234 237 239 258 248 314 294 275 263 278 303 301 372 356 342 334 331 352 349 349 350
273 258 248 247 208 213 210 221 217 225 244 239 243 245 241 245 246 236 269 256 306 319 253 272 282 288 292 319 373 351 328 316 343 332 332 335 332 330
264 253 242 211 212 213 221 207 212 247 236 239 248 236 244 231 241 288 322 323 292 260 279 282 278 281 321 361 349 335 313 350 323 323 371 353 337 325
259 243 211 211 214 220 217 215 246 234 240 259 263 250 238 234 266 254 268 260 270 284 284 275 279 328 369 350 327 318 348 336 337 358 334 321 310 308
241 211 211 213 223 214 213 238 234 228 226 252 257 243 229 242 270 263 280 284 286 295 276 273 281 348 368 349 313 298 335 320 367 327 307 340 322 302
206 211 211 223 215 210 234 235 220 235 226 263 252 235 259 295 258 280 276 292 295 275 274 280 299 344 372 348 301 347 328 357 335 306 326 313 283 277
203 207 215 213 227 237 229 226 231 227 258 251 238 240 305 260 270 277 274 292 274 268 284 289 308 355 390 331 325 352 308 349 313 321 303 281 272 269
215 210 222 238 231 228 226 226 234 257 250 221 242 309 262 263 287 282 266 287 265 273 285 304 328 364 392 321 310 343 331 321 299 321 280 279 265 256
215 233 234 228 228 225 223 242 252 250 236 243 255 300 252 275 293 282 285 286 267 280 302 337 362 371 393 320 290 336 350 303 315 294 280 271 266 259
233 227 225 225 225 234 241 256 254 228 236 251 268 295 262 279 293 284 284 284 270 294 359 374 388 362 400 309 295 335 308 298 310 276 275 266 256 256
229 224 224 230 240 246 246 257 239 227 245 266 292 294 264 292 290 286 289 271 283 383 357 353 375 355 395 291 405 325 313 310 282 279 260 256 257 254
227 229 236 240 239 236 251 252 227 246 258 279 298 312 306 293 286 289 291 276 305 360 351 391 381 356 355 286 356 326 342 294 281 274 258 255 258 258
231 231 234 236 240 243 250 244 243 251 266 249 286 314 293 284 294 293 280 282 372 356 351 374 372 385 339 334 312 337 316 287 278 261 269 253 247 254

GFSNE_2pvu_pres_087.txt.gz
Presure
163 180 177 188 194 188 192 248 266 237 248 232 233 244 269 261 242 251 241 233 238 234 300 292 282 270 263 254 257 248 246 237 233 239 219 217 223 231
185 187 188 177 224 227 248 241 246 249 235 230 239 280 265 250 234 229 242 233 230 253 245 316 292 277 270 263 251 248 244 250 240 233 234 213 241 238
181 184 209 225 249 245 254 246 246 234 232 238 281 265 253 236 227 223 242 231 223 233 246 247 282 312 300 287 277 260 260 265 250 239 243 242 242 235
194 186 227 257 247 254 241 243 234 232 237 294 273 262 243 227 219 233 247 241 230 208 239 236 245 242 240 235 248 290 272 277 274 272 263 252 251 244
226 232 248 254 259 248 240 232 231 237 269 278 268 249 231 217 221 239 242 243 235 227 245 251 252 248 245 239 236 234 233 230 238 255 273 259 255 262
250 245 247 246 244 239 229 228 236 269 273 269 254 237 222 217 218 231 248 249 237 236 243 239 242 247 236 246 244 233 228 234 250 244 236 236 231 231
251 249 247 242 234 232 229 236 267 262 274 259 237 225 216 228 216 247 240 242 235 248 245 239 227 241 244 239 243 248 250 253 251 244 248 243 237 238
251 239 234 233 226 231 240 269 257 268 268 242 229 213 219 221 219 245 232 237 251 253 249 252 249 245 256 265 254 255 326 316 316 313 308 305 298 292
234 229 226 227 231 241 265 274 267 256 244 231 213 217 221 213 237 238 238 255 250 247 246 237 265 265 337 335 319 290 265 277 291 294 298 304 307 310
231 225 228 234 253 234 251 250 259 246 233 208 212 217 223 211 246 233 261 269 258 249 242 252 270 282 278 269 278 300 292 288 296 335 370 362 355 351
225 225 241 261 255 252 248 269 252 238 212 210 217 220 222 245 233 237 232 267 255 234 290 279 280 285 293 299 307 285 289 300 391 359 341 331 329 347
234 253 259 246 246 244 259 256 239 207 211 216 225 210 238 239 231 239 237 258 238 282 281 264 280 288 307 299 281 284 294 362 379 331 314 322 335 337
245 264 242 254 244 243 258 233 206 212 214 226 217 228 239 231 234 233 256 229 255 271 261 288 284 296 288 274 280 290 315 363 379 315 350 324 324 326
247 241 252 241 238 242 235 208 207 212 225 215 233 236 233 225 252 253 250 244 293 255 295 290 261 291 278 268 273 295 328 362 375 302 337 330 359 341
253 241 239 242 239 236 207 206 202 209 215 236 235 230 226 264 256 246 230 296 296 265 297 287 284 288 282 267 286 325 347 360 370 348 318 355 334 313
241 238 241 238 232 217 210 209 215 226 234 232 229 247 257 261 249 230 272 305 293 289 295 291 288 293 268 286 346 358 364 390 347 350 336 338 308 300
231 247 232 229 221 211 206 207 234 229 228 230 249 249 267 247 230 253 296 302 313 299 295 293 297 273 281 368 366 368 369 385 324 353 348 316 317 318
243 230 221 215 215 212 234 229 228 227 233 242 241 254 254 238 247 280 304 323 310 285 292 294 296 279 353 356 356 367 362 375 294 375 351 303 325 283
236 236 242 250 235 228 230 228 229 237 236 241 253 253 244 245 283 309 295 299 302 298 293 299 279 288 366 333 367 381 363 386 298 336 347 314 294 276
240 236 231 230 230 229 230 233 229 229 237 247 253 255 239 262 279 307 277 316 304 296 296 301 280 303 356 343 350 381 374 342 355 319 299 326 297 279
236 235 234 233 230 231 226 239 237 239 237 251 257 242 252 275 285 271 300 319 295 289 299 296 282 311 345 347 360 370 400 315 321 347 332 314 291 276
226 231 239 227 221 226 230 228 236 239 247 259 249 244 269 283 284 325 325 324 297 289 298 298 283 310 350 342 374 351 401 313 393 345 327 292 282 277
239 216 220 221 219 226 231 233 238 245 258 250 247 259 276 289 290 314 307 318 306 293 309 298 287 310 376 343 454 353 404 302 332 335 329 289 282 261

GFSNE_2pvu_pres_090.txt.gz
Presure
170 157 163 174 174 165 177 184 184 187 188 253 241 256 248 240 235 246 289 269 251 239 232 230 242 254 249 226 235 327 281 242 273 261 238 236 241 234
165 171 163 176 172 175 182 187 177 249 256 244 243 251 243 237 237 280 274 253 241 231 230 223 251 252 251 242 241 247 249 259 308 284 270 250 258 258
156 171 173 178 181 184 192 215 230 253 243 257 253 242 234 239 281 279 263 243 231 222 226 219 246 244 247 244 247 244 249 258 248 251 252 290 256 256
186 185 185 196 190 236 228 238 248 232 255 245 243 235 234 280 283 274 253 236 226 223 228 224 250 242 241 244 250 241 239 234 245 244 249 242 232 308
192 191 228 238 215 228 207 248 227 247 245 238 236 235 279 284 267 257 242 229 220 224 228 211 246 238 249 250 239 241 245 241 243 241 239 240 238 254
197 235 228 224 227 246 250 236 254 240 238 237 233 275 272 264 255 248 230 219 224 225 225 231 241 233 263 266 261 257 243 262 273 267 306 272 257 247
231 216 232 233 245 242 237 251 240 231 233 234 275 260 269 254 251 237 221 218 224 225 224 245 232 233 239 274 244 246 293 280 276 293 318 325 328 310
220 256 233 250 240 237 254 240 230 225 232 272 262 254 267 258 243 222 213 222 227 220 237 240 241 236 266 257 277 302 285 290 292 299 305 305 280 281
244 254 247 243 259 240 238 229 226 227 254 257 254 254 261 243 224 213 218 225 227 234 246 236 232 262 261 262 280 266 288 291 306 314 302 290 291 299
244 239 257 243 241 237 228 227 236 247 255 256 243 256 244 226 207 215 221 219 232 243 241 254 269 257 242 292 273 281 294 282 298 292 280 281 291 348
271 242 238 233 229 227 228 253 240 255 258 242 244 243 229 208 210 212 216 234 239 237 266 271 261 239 307 296 275 303 290 290 293 285 279 278 324 377
236 241 228 228 230 234 254 241 250 259 242 242 242 236 217 211 210 217 240 237 239 264 273 262 237 315 305 295 300 298 293 293 296 280 279 342 361 359
228 229 234 232 256 245 252 243 250 241 239 240 234 222 214 214 234 240 232 242 253 265 264 238 301 334 317 303 301 295 295 303 285 299 371 365 364 343
236 236 254 243 260 248 239 250 239 238 239 234 225 209 214 236 236 233 245 244 260 276 237 269 319 324 314 294 288 295 298 293 295 385 362 380 379 316
250 245 260 246 243 240 241 237 236 239 229 222 213 221 237 232 233 241 232 253 263 266 247 294 285 314 305 299 293 296 296 284 356 347 358 387 389 360
253 245 251 260 295 267 246 241 237 228 219 222 237 235 232 235 236 233 244 261 267 245 291 285 275 321 303 301 298 300 280 302 359 360 368 373 359 346
258 254 262 256 248 240 239 234 233 237 245 236 234 233 236 241 242 243 253 262 261 270 306 345 335 327 292 289 296 302 281 310 335 354 382 361 329 327
245 245 247 247 249 257 259 248 239 233 237 232 233 227 236 229 241 248 261 271 254 287 278 297 317 332 311 290 296 291 289 307 328 363 384 390 306 329
235 245 252 246 237 237 235 234 236 231 232 224 223 225 234 238 239 253 262 251 276 289 279 295 333 325 309 295 294 294 293 313 328 376 369 418 321 321
242 224 239 238 237 235 230 229 239 210 225 223 227 230 238 236 241 260 265 260 282 282 269 334 323 311 321 314 310 290 298 311 331 379 372 388 352 342
247 233 228 227 231 237 243 224 227 212 225 224 232 234 235 237 258 275 252 276 290 274 274 328 327 314 326 327 315 284 297 316 353 374 363 381 302 355
225 234 244 236 218 222 222 216 206 226 229 227 233 234 236 254 279 249 276 282 295 273 301 331 322 321 320 308 292 287 296 319 388 378 358 367 312 344
239 239 239 234 233 234 227 229 231 233 227 234 233 236 257 283 252 273 278 296 277 308 337 330 312 315 300 298 303 301 308 330 376 389 464 301 331 371

GFSNE_2pvu_pres_093.txt.gz
Presure
170 169 173 174 165 173 170 178 178 181 184 186 188 191 214 251 229 241 255 241 243 286 282 278 260 245 232 224 230 225 251 252 259 255 254 248 229 236
163 169 169 173 172 175 176 181 186 183 191 184 193 226 249 217 243 236 241 240 265 279 266 264 251 237 223 226 232 220 251 243 250 257 246 242 245 234
168 171 172 172 179 178 178 179 181 187 183 211 200 227 226 250 243 241 239 235 270 275 266 255 244 228 220 228 228 221 256 244 239 251 266 264 254 245
173 168 178 177 175 175 175 173 189 183 218 248 235 241 247 233 247 224 235 275 267 271 257 252 236 222 221 231 220 243 251 244 238 248 277 257 234 236
166 164 170 177 171 176 177 193 188 204 228 250 250 243 233 252 234 237 260 264 264 258 254 243 227 216 226 232 220 251 246 242 251 270 266 238 273 285
178 176 175 188 176 180 190 192 225 233 234 237 241 235 241 236 234 241 271 252 263 255 244 231 218 223 226 221 248 245 241 279 273 272 249 314 291 283
181 184 187 179 190 226 216 230 240 246 241 250 241 244 238 231 250 252 257 246 255 244 234 213 214 216 219 247 245 287 284 270 256 275 297 284 267 302
191 195 234 237 222 227 244 259 239 241 236 236 228 234 234 235 245 253 252 247 243 239 223 213 213 235 243 263 269 282 258 243 320 304 300 285 288 306
237 233 212 155 253 253 250 248 254 238 253 228 233 231 236 249 254 251 246 241 239 231 215 223 233 243 257 259 287 273 251 325 315 299 295 283 303 300
243 264 223 251 248 256 249 235 259 243 237 228 235 236 255 257 249 238 241 236 230 224 221 243 242 251 244 273 286 257 314 337 324 312 304 302 297 294
244 246 253 250 246 240 239 246 239 236 231 234 257 253 263 251 243 242 236 230 219 226 239 241 247 243 256 275 272 283 304 291 319 307 295 292 293 297
247 249 243 247 255 255 237 236 234 234 240 254 260 243 251 239 240 236 228 220 242 236 239 241 244 249 267 285 262 352 328 325 312 303 297 292 293 300
237 248 254 243 240 237 233 235 237 255 250 256 245 246 241 236 237 225 224 243 235 237 235 231 245 256 265 252 303 296 341 335 316 306 291 294 300 283
251 243 239 239 233 234 236 254 243 256 250 279 271 296 242 240 232 237 239 234 234 232 237 243 245 259 268 261 304 292 327 337 315 292 294 306 282 311
230 239 233 234 234 252 244 254 260 271 262 248 242 243 242 241 237 233 235 228 229 231 244 242 250 261 259 292 296 282 330 328 323 294 293 308 294 321
235 234 241 250 242 254 253 251 253 246 254 257 259 255 235 230 238 229 226 227 228 237 241 246 254 279 257 299 279 275 326 307 303 309 303 299 300 327
243 246 243 250 257 252 245 245 260 252 242 240 238 234 233 236 216 228 227 226 235 237 246 252 280 253 290 289 267 328 333 318 327 315 311 283 302 332
238 256 262 253 268 263 251 245 190 243 240 235 232 239 230 221 215 229 225 234 234 242 249 279 261 284 297 292 334 335 333 322 321 314 313 280 300 333
249 247 228 224 230 257 247 238 233 230 238 240 206 224 223 217 230 234 231 234 240 243 284 261 287 303 276 313 331 336 333 316 316 310 301 284 293 323
236 225 233 239 225 224 227 230 229 227 222 226 222 229 231 239 241 229 236 239 245 281 255 287 290 291 333 351 342 324 318 315 313 308 288 292 296 319
226 229 240 242 239 236 235 233 232 230 228 231 240 241 243 241 233 237 239 250 278 254 281 286 310 348 359 342 327 343 359 372 373 350 315 305 300 325
229 225 218 216 218 219 222 222 231 230 227 235 239 245 240 231 236 238 272 276 254 285 292 316 367 309 329 354 348 367 388 377 373 400 379 357 342 336
220 218 216 217 214 214 213 219 225 235 229 235 241 256 238 235 237 286 271 269 283 296 312 362 294 321 349 313 389 410 511 486 406 381 398 387 365 359

GFSNE_2pvu_pres_096.txt.gz
Presure
171 171 172 167 164 162 176 161 174 175 168 169 166 171 170 177 189 182 194 234 231 236 241 242 243 264 272 279 270 263 245 217 222 233 227 229 254 251
172 165 153 168 177 158 173 165 164 164 169 163 172 179 167 187 180 195 201 240 235 246 257 241 237 272 265 279 266 255 237 213 228 237 227 238 254 250
175 183 179 168 166 176 153 161 157 171 165 175 179 178 180 188 193 198 245 246 248 250 238 237 268 268 257 268 254 246 211 223 224 226 254 254 250 246
182 185 182 183 185 153 171 184 172 168 181 178 179 182 190 192 251 234 243 248 234 250 230 238 264 258 256 254 250 226 219 215 232 255 272 280 292 291
185 185 182 158 181 184 167 170 180 182 180 189 190 189 230 220 246 228 240 235 251 237 233 254 258 254 252 250 243 229 225 248 258 263 283 294 296 266
196 189 182 183 186 190 189 190 189 191 163 192 214 229 228 237 233 241 239 251 234 234 238 260 251 243 249 244 236 224 239 249 256 260 286 289 258 291
194 198 195 194 194 192 194 159 197 177 235 252 256 248 239 224 248 238 243 237 232 238 255 251 245 248 244 238 221 245 244 252 261 280 286 259 316 317
251 210 209 204 205 247 233 251 249 236 253 252 245 223 245 249 237 232 236 230 236 256 253 240 240 242 237 223 247 242 244 243 265 280 267 365 343 316
267 254 248 265 243 286 261 243 252 260 249 237 239 248 238 238 237 232 232 242 249 250 250 235 246 235 228 247 240 241 241 254 267 273 271 315 342 331
302 314 291 274 289 246 269 266 252 241 230 250 239 243 251 232 233 237 254 242 246 246 242 248 236 236 244 239 237 238 251 253 264 288 273 313 334 333
269 309 287 258 233 267 257 255 255 251 240 260 250 240 237 233 240 253 250 248 290 277 251 238 239 237 237 232 235 242 245 254 258 284 322 298 307 332
263 285 255 264 266 248 251 247 235 237 254 233 237 235 235 252 249 256 300 290 251 243 241 245 236 236 228 236 240 242 251 260 277 267 306 286 277 326
275 259 257 266 257 248 235 238 242 243 234 235 236 243 253 262 258 261 247 246 250 245 236 240 225 232 229 233 240 249 257 266 282 272 299 278 334 318
252 270 248 250 249 252 253 249 230 233 237 240 253 256 253 253 252 246 241 236 236 235 237 216 223 231 229 235 244 255 264 284 270 333 275 341 340 333
269 263 253 258 249 239 235 233 237 237 253 251 258 248 243 261 245 245 236 236 239 237 226 218 227 233 233 241 249 261 281 265 310 319 332 338 339 333
243 241 241 229 238 234 235 235 250 255 273 270 255 247 247 240 235 233 240 234 224 233 230 240 243 235 242 249 262 277 264 305 318 336 349 338 337 334
247 239 236 235 234 233 242 244 258 239 231 264 254 242 238 238 238 225 228 239 244 246 249 245 236 241 248 273 269 277 314 327 360 360 347 331 322 318
239 235 232 231 239 239 243 249 238 242 233 227 232 236 236 237 230 227 235 239 246 251 240 241 245 250 274 260 299 318 368 363 338 324 345 347 341 347
232 229 234 237 238 244 247 236 238 251 241 235 227 222 234 235 229 229 235 248 257 248 243 245 262 275 255 287 351 366 347 329 358 332 357 371 370 351
228 234 233 238 241 245 234 234 233 221 216 219 215 216 221 231 234 231 241 250 244 242 245 294 269 293 287 369 352 329 340 351 324 381 401 468 419 391
231 231 235 236 244 237 228 231 218 217 216 215 217 216 217 223 236 237 242 247 238 243 283 268 288 283 331 347 329 356 342 331 372 381 530 517 501 435
232 235 231 239 240 230 228 224 217 214 213 212 211 214 217 226 236 235 245 237 247 268 281 277 286 305 352 335 339 337 338 304 287 398 395 522 505 423
230 229 232 238 240 225 220 222 217 212 207 212 206 218 216 231 233 243 241 245 258 281 266 283 291 349 347 316 351 329 344 239 367 380 421 394 412 404

GFSNE_2pvu_pres_099.txt.gz
Presure
172 170 179 152 180 181 136 182 179 178 175 176 157 182 182 185 180 173 190 192 189 195 202 241 246 226 246 257 240 241 273 267 263 259 246 218 217 222
174 179 168 182 176 177 177 178 181 184 180 168 181 161 182 184 186 191 193 194 202 204 242 243 231 231 239 239 239 260 263 256 259 257 243 223 216 209
172 179 184 173 175 177 180 180 183 188 187 185 187 192 193 193 197 184 202 202 240 231 240 230 230 242 251 239 240 266 255 246 257 248 240 227 258 262
178 175 185 179 166 172 181 181 182 197 196 197 193 193 195 195 149 203 226 255 224 241 229 238 251 251 241 237 259 262 245 247 252 241 238 234 255 255
173 173 177 185 198 197 186 184 181 180 191 191 191 207 211 216 209 207 238 251 241 236 235 242 232 248 238 243 257 245 248 247 244 238 255 249 251 255
195 192 190 185 182 191 185 187 191 190 197 191 195 216 241 238 257 247 258 238 235 229 246 233 237 237 246 253 254 243 242 250 240 249 244 243 250 257
189 197 195 195 193 189 199 191 193 195 201 199 248 243 250 271 243 260 238 239 227 246 248 236 235 240 253 255 254 256 250 242 247 242 239 241 251 255
197 200 219 200 197 195 199 206 205 226 305 275 246 266 271 263 252 234 241 236 242 253 235 235 241 253 271 283 271 256 242 245 241 237 237 243 250 257
205 211 214 213 212 206 229 223 252 260 303 267 260 268 257 252 236 248 241 255 235 237 237 251 255 280 255 246 243 248 242 239 229 238 238 247 250 258
277 265 328 369 371 341 262 251 296 268 258 255 260 244 249 248 238 231 250 234 237 237 259 251 254 254 252 255 242 240 241 220 228 239 245 246 257 269
320 297 280 271 284 248 262 291 266 274 261 246 256 247 244 232 237 247 236 240 250 257 255 254 248 245 244 243 242 238 228 226 236 243 245 255 265 289
316 310 331 263 269 293 273 255 251 263 250 254 255 241 238 241 248 238 241 257 260 245 254 255 249 240 240 241 234 230 238 248 244 245 254 263 286 265
319 301 313 292 274 269 272 251 251 251 259 242 240 252 247 238 239 253 268 263 251 244 243 238 243 240 219 234 249 251 251 248 248 257 267 280 271 311
290 299 283 280 265 266 260 240 246 246 262 257 246 234 237 242 260 269 266 255 246 240 236 243 231 240 239 247 253 262 252 255 262 279 276 301 357 359
280 267 285 267 255 243 249 259 253 241 248 234 236 236 248 258 237 219 231 248 246 237 231 227 231 236 251 260 249 252 257 263 285 269 381 371 352 331
258 262 266 274 254 263 265 244 238 231 237 234 235 250 249 237 257 249 237 228 225 237 240 230 232 242 253 248 249 256 279 277 323 374 342 328 333 359
254 268 253 249 247 246 240 245 233 234 233 240 245 248 238 252 238 228 221 215 219 219 231 238 238 247 244 248 256 283 275 352 363 332 334 356 338 330
262 252 243 257 233 249 240 233 229 228 238 240 250 237 242 235 223 217 214 217 218 218 229 236 243 247 245 253 287 280 293 372 339 371 337 347 319 358
259 251 260 251 228 233 226 227 228 236 238 249 244 229 236 224 219 215 213 211 218 218 228 235 244 244 249 277 274 291 331 358 341 328 327 345 325 217
248 245 224 234 226 227 232 228 236 232 240 247 238 229 228 218 215 211 211 206 216 217 231 230 243 249 256 291 279 301 381 331 341 316 319 338 299 377
232 234 231 229 229 228 235 233 230 237 237 244 236 227 223 215 213 205 208 205 215 216 229 235 249 250 271 282 284 307 375 341 322 310 317 330 332 390
235 234 233 224 226 228 229 232 234 230 232 240 239 223 218 214 207 208 207 209 214 217 228 236 250 253 280 276 287 309 379 343 310 315 320 332 328 327
228 233 224 229 236 235 231 230 231 232 235 237 239 225 216 212 208 208 206 215 214 217 229 242 246 257 281 273 290 317 387 341 286 280 275 314 336 341

GFSNE_2pvu_pres_102.txt.gz
Presure
150 159 177 169 167 191 184 184 179 194 179 140 176 172 191 203 183 183 196 195 189 192 202 150 249 257 243 248 242 236 237 240 241 243 264 256 251 253
159 164 178 171 182 187 176 178 175 181 181 179 188 196 189 176 189 194 192 193 192 204 204 237 240 257 243 240 242 235 248 254 239 255 251 251 252 258
181 179 177 188 173 171 176 179 179 178 171 191 177 180 187 187 182 195 195 194 201 205 233 235 270 241 253 240 232 240 252 237 240 261 267 258 252 251
174 192 184 179 171 180 181 181 181 196 184 186 185 200 185 191 197 194 197 203 205 222 256 267 241 250 239 237 243 254 237 239 266 275 282 276 261 244
189 193 192 180 185 183 196 196 181 188 194 212 197 194 197 195 198 196 210 216 239 248 277 260 250 241 238 240 251 240 240 270 292 261 254 256 248 251
174 177 187 183 188 188 191 194 209 203 202 199 201 193 197 204 205 211 258 279 274 276 256 242 246 237 231 244 238 245 269 260 253 253 255 260 245 246
194 187 186 182 181 193 201 196 201 193 208 204 202 204 205 213 223 243 273 285 271 234 247 243 241 231 245 238 251 267 260 255 262 250 244 245 246 238
208 182 187 188 201 201 200 199 221 204 210 209 213 215 253 329 285 293 252 253 259 252 250 248 237 243 238 254 258 260 256 252 244 243 243 244 237 240
190 196 198 195 196 199 205 211 214 217 223 231 275 255 269 264 285 246 262 261 254 251 241 239 243 244 259 263 247 250 242 244 245 229 235 251 256 256
201 202 206 211 215 221 250 276 331 283 312 297 268 276 266 264 273 260 256 245 244 243 246 243 249 282 269 256 247 238 246 236 240 246 251 260 261 256
268 268 265 266 331 339 269 323 269 311 331 305 264 256 273 263 251 250 253 244 246 246 239 257 274 260 247 243 244 236 232 237 244 253 258 249 255 266
322 353 322 272 273 319 323 306 342 304 291 291 277 275 264 253 251 254 238 254 239 240 262 237 229 241 239 241 243 246 239 242 251 249 248 258 267 291
399 351 296 333 309 290 321 327 295 292 274 281 273 264 251 247 247 254 240 237 238 263 246 255 240 232 223 225 228 242 241 253 246 248 255 284 284 332
345 329 322 312 305 304 279 288 280 276 271 267 258 249 254 257 246 236 238 239 260 240 251 237 230 221 222 225 228 239 243 246 247 255 283 283 371 365
321 301 310 293 301 290 279 290 255 261 263 260 256 260 252 239 231 236 240 255 241 246 235 226 221 219 217 222 229 238 241 251 251 286 281 309 356 351
295 284 282 294 276 273 263 254 276 255 245 254 251 231 242 234 231 232 247 244 236 235 226 219 220 215 215 222 224 237 248 245 278 277 291 378 348 338
290 296 283 267 278 258 259 265 261 273 257 247 235 244 233 230 228 242 251 237 228 232 222 218 214 213 212 219 226 235 252 252 280 284 296 337 349 320
295 281 275 275 262 264 246 265 248 252 229 240 236 227 227 228 238 246 244 235 230 226 218 216 206 211 215 220 225 235 255 259 282 286 322 346 316 303
270 251 243 268 244 261 253 245 257 247 235 233 228 225 228 237 236 238 246 235 229 225 216 210 210 210 217 221 228 236 240 264 287 285 311 348 295 278
266 276 265 264 272 254 253 247 244 222 230 225 228 227 235 228 236 231 240 242 225 225 219 213 208 205 214 220 227 244 243 262 286 282 298 346 295 270
253 252 247 248 255 244 239 237 223 234 227 228 226 232 227 233 235 229 235 237 237 226 216 213 212 211 216 218 228 240 247 266 288 284 305 354 323 272
247 244 235 227 226 239 238 231 238 229 227 218 234 231 230 232 235 225 235 232 241 243 219 214 206 216 216 218 232 240 246 265 289 290 315 356 353 263
248 236 237 235 246 237 235 234 222 227 223 228 231 228 230 230 232 235 235 235 236 243 215 212 208 216 223 219 230 242 251 263 281 286 305 303 352 270

GFSNE_2pvu_pres_105.txt.gz
Presure
153 183 182 192 185 184 170 195 188 176 175 177 180 176 191 185 182 182 189 205 191 204 201 202 211 205 207 222 247 255 265 255 245 244 236 239 242 273
185 191 180 186 189 182 195 186 188 196 176 188 188 185 205 181 185 192 196 195 203 206 205 209 207 210 227 231 250 268 254 238 237 231 241 243 264 263
188 181 171 186 167 198 172 167 198 185 172 180 181 202 183 180 178 200 202 194 199 207 204 215 211 237 264 277 268 236 250 242 242 251 239 266 263 269
196 196 201 193 196 155 193 175 174 173 191 181 189 183 180 196 197 199 199 200 205 201 213 219 220 295 297 253 273 254 249 253 238 241 258 262 272 249
165 202 184 163 201 193 176 204 201 183 201 183 180 203 195 196 198 192 199 203 205 215 220 254 240 242 253 236 252 242 242 246 247 246 262 260 256 249
175 180 188 172 205 190 197 181 195 208 188 194 182 197 199 199 195 205 210 212 218 229 248 262 245 277 242 255 249 243 247 244 263 266 258 248 249 252
165 175 184 173 170 203 206 208 200 204 193 188 203 199 212 199 200 211 214 228 276 283 275 272 264 264 253 246 246 249 244 285 264 252 244 248 239 242
173 174 189 214 181 213 176 184 215 218 210 206 216 198 202 214 208 242 290 249 261 281 283 246 266 252 248 246 245 247 241 252 251 243 242 248 247 247
146 205 201 192 233 231 226 221 220 221 224 222 220 226 221 234 252 277 271 268 284 285 273 263 243 251 244 244 244 247 231 245 240 227 239 245 247 257
245 199 218 211 201 204 241 238 227 227 223 219 224 252 294 289 296 301 296 269 256 250 266 249 257 249 239 244 261 251 240 231 223 226 235 240 245 256
219 222 221 225 230 233 231 234 269 271 268 278 280 267 312 306 306 274 279 277 266 259 253 242 246 238 240 256 261 240 231 221 223 225 229 238 248 258
272 280 281 305 280 327 277 409 312 317 325 309 320 304 307 299 290 275 278 263 256 248 251 239 235 240 254 256 240 230 218 219 218 223 226 238 252 261
346 368 302 354 377 387 364 368 342 319 310 306 329 311 298 278 271 273 265 256 247 249 238 228 234 255 245 240 230 218 218 218 216 223 228 237 250 274
376 383 394 369 373 363 328 305 294 308 308 292 304 281 283 273 264 260 246 235 251 232 230 229 244 248 241 232 228 216 218 213 212 221 229 238 251 289
353 341 331 332 315 306 308 300 298 303 291 300 280 275 278 251 258 252 253 249 235 231 224 229 251 243 238 230 225 216 213 213 213 219 229 240 256 292
306 318 294 297 301 298 292 300 292 288 268 283 279 261 243 261 235 248 244 230 228 223 228 241 245 241 235 231 226 217 209 213 215 219 229 240 262 294
309 301 286 286 283 294 302 281 283 272 267 261 271 259 262 259 247 240 231 227 217 224 232 238 245 245 233 230 224 218 212 212 216 221 227 241 266 291
284 286 276 283 302 288 278 276 268 271 268 253 269 257 250 242 233 232 226 222 223 231 232 235 233 239 241 231 226 217 213 209 217 224 226 239 264 293
283 278 297 271 260 272 284 262 264 257 261 257 258 236 247 230 238 226 224 218 227 231 227 234 228 232 236 243 244 217 216 208 217 222 229 242 262 292
269 280 273 267 275 274 284 257 264 249 238 250 251 250 237 239 220 219 223 223 230 226 230 236 225 234 237 240 245 253 212 213 218 218 230 243 261 292
251 250 255 261 261 257 266 264 256 254 252 247 244 238 239 220 232 225 222 217 230 231 233 226 240 232 236 243 243 245 210 215 217 216 229 241 258 296
249 252 250 254 248 251 253 247 247 251 253 227 236 236 224 226 236 226 222 223 232 234 227 234 235 230 247 243 256 237 214 216 221 218 232 241 255 287
255 245 242 239 243 237 233 238 234 229 228 238 239 230 222 230 218 225 227 237 228 226 236 229 241 248 251 265 262 215 216 215 222 224 240 244 256 287

GFSNE_2pvu_pres_108.txt.gz
Presure
174 174 168 185 143 187 167 181 196 184 151 193 187 170 202 201 190 213 177 176 199 198 200 208 205 195 197 204 211 228 237 258 255 275 240 254 243 243
190 190 192 177 185 167 187 161 194 187 175 178 165 189 202 208 196 189 185 209 189 204 202 215 195 202 210 219 220 260 277 261 275 260 254 251 240 249
188 187 195 171 153 168 179 162 188 178 197 162 194 167 187 173 222 206 184 213 202 197 226 198 202 208 214 221 258 263 252 248 271 232 252 238 249 256
155 151 177 159 152 189 164 153 170 153 176 171 207 176 181 176 193 210 246 208 218 223 204 206 212 218 224 245 241 255 264 233 262 254 256 247 270 274
189 186 167 160 196 154 179 200 201 163 198 171 188 204 190 190 210 199 218 227 225 209 215 237 221 227 241 285 266 258 272 248 255 253 243 262 239 254
196 179 146 173 173 174 186 161 205 204 199 211 215 191 202 201 191 223 197 200 209 226 223 209 226 264 278 253 279 255 268 254 252 250 252 245 252 247
194 207 208 200 181 183 178 197 216 215 222 216 212 206 205 204 214 203 201 244 227 218 217 235 255 284 288 268 277 255 254 255 250 247 258 252 242 228
174 173 172 177 179 180 183 206 239 236 228 226 223 217 212 204 204 216 219 223 221 231 252 332 250 298 267 269 253 255 253 247 245 263 248 242 230 220
181 181 180 181 189 191 200 202 208 222 209 209 218 206 206 228 219 230 229 250 256 275 311 274 286 264 276 263 256 252 243 241 258 247 241 232 220 222
202 203 194 199 204 214 232 218 220 225 220 221 219 221 225 238 286 285 288 307 317 305 307 280 264 271 263 251 249 240 237 259 248 245 232 224 221 218
224 223 223 231 240 235 233 239 245 242 249 276 280 273 276 302 308 304 295 324 281 302 272 270 272 263 255 248 240 234 246 247 244 235 230 218 219 216
245 255 258 256 258 262 267 287 298 286 274 269 355 384 363 337 323 319 286 299 289 280 278 251 265 251 244 240 232 233 251 245 239 232 229 219 217 215
287 269 278 280 283 276 271 312 396 379 371 376 368 340 314 318 302 319 283 286 274 268 266 250 251 242 241 234 231 234 250 244 240 233 229 218 216 214
254 257 255 262 299 342 375 371 365 366 354 339 319 320 303 295 312 292 292 265 272 264 256 250 253 240 233 231 224 231 247 245 238 232 231 220 214 213
297 247 285 307 339 349 332 336 288 316 306 288 311 299 282 297 291 278 254 273 264 240 254 247 238 232 223 223 232 234 242 248 244 234 232 227 218 212
296 291 299 302 335 313 295 286 290 304 297 297 290 277 279 277 275 257 254 256 247 254 234 239 235 222 226 227 229 234 235 229 237 241 247 248 217 210
286 288 291 278 303 300 296 297 277 289 288 290 276 285 274 272 273 264 253 244 256 244 238 236 224 227 225 222 227 234 234 229 234 237 243 250 237 215
280 280 273 273 276 294 286 274 277 278 288 270 268 263 266 254 254 250 255 260 251 241 231 231 226 222 220 230 226 235 230 231 232 238 238 253 235 217
263 273 273 272 276 281 287 272 286 263 270 268 257 256 267 246 245 250 248 245 231 233 234 230 217 219 223 226 227 231 226 235 235 240 247 263 213 218
268 264 259 259 261 267 272 267 277 266 266 262 252 247 248 247 251 241 239 232 239 236 231 217 224 226 215 226 232 225 229 234 236 249 264 269 216 217
260 267 265 255 254 250 246 247 262 262 263 281 259 251 243 251 254 245 245 247 236 239 214 235 227 226 218 235 229 227 230 238 244 257 281 256 220 215
265 258 265 259 250 250 249 248 247 244 238 245 248 241 236 239 246 237 223 224 225 227 221 224 217 222 226 232 230 227 235 242 243 267 275 234 214 222
261 260 253 255 255 255 254 240 241 239 246 242 242 240 237 229 223 220 230 235 229 229 222 223 221 225 230 232 227 229 237 247 221 230 227 212 221 227

GFSNE_2pvu_pres_111.txt.gz
Presure
175 189 176 171 183 168 197 191 164 172 185 186 138 197 191 196 168 184 195 198 180 205 179 223 224 190 220 204 203 227 221 214 219 238 259 245 257 251
150 160 176 187 149 178 178 184 179 193 146 194 145 193 164 148 191 204 192 184 184 180 229 232 211 205 209 215 207 230 208 227 240 290 241 252 242 243
167 171 173 180 201 176 186 177 189 170 189 188 196 176 188 191 208 180 189 206 210 217 223 216 216 207 155 207 218 215 225 241 246 264 271 252 256 256
170 168 162 151 160 165 155 183 169 189 155 169 194 172 206 159 150 195 178 182 199 218 228 222 217 223 231 234 217 226 236 283 251 268 259 241 256 254
150 169 178 157 168 171 179 183 156 194 171 187 180 201 171 179 185 207 189 192 224 230 226 217 205 225 221 215 233 254 317 296 275 274 262 256 254 248
177 166 159 180 187 170 165 178 169 169 171 180 185 178 143 189 188 189 193 200 204 221 207 216 216 224 228 250 287 309 308 283 271 265 252 254 248 249
175 172 176 167 170 163 162 169 173 173 178 171 181 188 183 186 191 198 201 214 221 222 222 224 222 230 261 264 269 300 290 268 257 257 255 247 243 258
189 211 227 228 239 178 179 193 176 170 154 191 181 199 195 195 204 208 221 224 224 228 228 234 239 270 255 329 323 289 276 263 260 252 249 241 257 257
189 191 198 202 202 189 203 191 192 203 201 191 190 210 212 216 222 231 233 236 236 243 271 263 261 267 325 307 293 266 264 257 252 250 240 240 247 245
182 184 186 189 241 212 210 176 193 206 224 222 223 226 236 245 248 249 247 266 273 291 256 282 293 283 268 293 277 265 260 252 249 238 234 251 248 242
254 254 249 247 224 252 257 242 239 239 243 253 262 265 265 272 278 333 262 333 341 349 329 327 323 310 289 275 261 262 248 246 237 235 229 249 242 242
261 263 201 260 268 266 267 267 274 271 274 277 280 290 263 388 370 352 364 371 341 323 302 317 304 283 260 249 262 249 243 236 236 231 241 241 246 243
285 282 282 275 275 283 269 258 259 273 254 284 379 379 374 361 358 360 346 328 316 298 309 284 282 260 256 258 248 242 235 236 229 226 238 235 238 239
261 262 175 213 259 223 265 291 305 310 337 347 342 358 353 343 335 317 317 308 286 300 279 282 256 266 257 247 249 235 234 229 226 234 230 235 232 230
318 302 300 304 284 292 301 297 301 320 339 312 305 289 288 297 288 297 289 296 287 285 271 251 262 255 240 250 226 232 230 224 225 226 229 231 231 230
304 287 295 293 290 263 290 290 294 297 312 301 280 286 302 301 286 290 264 282 268 261 260 243 254 243 246 241 233 232 225 223 225 224 226 231 230 232
286 288 284 282 280 280 280 287 277 277 286 301 312 276 255 281 290 267 274 278 267 263 254 252 249 236 245 235 230 228 218 223 219 226 222 231 228 236
275 281 277 275 278 267 269 275 278 281 288 273 271 280 285 281 266 276 260 260 255 261 251 240 252 248 245 226 229 224 226 216 224 215 228 229 232 234
273 273 267 263 272 269 259 265 270 269 272 282 270 275 269 262 252 250 251 249 248 240 241 247 240 242 225 230 228 229 223 216 224 219 232 236 236 239
269 296 307 257 284 264 264 258 256 261 254 261 260 275 268 262 263 253 253 252 246 241 241 238 243 235 227 231 237 212 233 222 219 226 230 236 234 238
271 299 293 280 280 269 257 264 255 254 248 249 249 256 251 263 264 255 251 244 247 240 249 242 235 238 242 236 236 215 217 220 225 225 228 231 231 241
271 286 278 272 272 268 265 257 261 251 247 248 248 249 243 239 233 251 260 246 234 233 242 245 231 218 218 224 223 221 221 226 224 223 229 241 239 246
279 268 278 267 264 264 267 259 257 256 261 253 248 242 249 246 246 243 244 237 240 232 245 241 225 225 225 230 229 225 229 232 234 235 239 236 242 261

GFSNE_2pvu_pres_114.txt.gz
Presure
178 178 211 177 176 173 173 164 165 175 151 133 181 172 163 174 195 172 186 195 182 190 172 147 180 192 191 192 200 206 235 203 225 215 227 253 262 276
200 140 181 188 171 187 156 170 184 163 168 170 176 157 155 127 206 182 153 199 172 180 175 188 190 192 193 212 200 213 215 218 219 229 247 257 290 278
170 174 169 176 176 155 162 172 175 176 163 162 159 167 178 173 165 181 169 174 198 171 178 184 189 200 200 198 204 216 215 225 228 232 280 285 296 269
168 172 165 175 177 178 160 181 174 163 175 180 171 182 163 172 169 167 179 187 148 181 194 203 194 200 192 207 210 217 226 230 228 268 289 301 284 275
160 138 176 182 189 175 164 184 152 167 194 200 172 160 209 185 192 212 188 181 213 232 208 196 202 202 206 210 219 228 238 241 280 266 313 283 274 262
181 190 168 167 193 174 172 187 175 178 179 156 187 187 205 216 212 235 241 238 204 183 182 198 212 213 214 222 236 242 250 270 274 274 272 278 255 264
183 208 145 192 143 153 191 180 200 188 191 199 204 176 198 187 181 203 211 201 226 212 213 217 222 226 234 243 247 266 296 259 252 289 280 265 254 250
195 199 180 209 226 182 213 190 198 177 221 134 181 164 188 194 138 245 205 226 221 225 232 226 242 252 254 264 301 272 242 321 267 275 277 257 243 248
203 203 176 163 231 216 214 209 228 267 209 212 132 255 258 256 254 250 245 250 249 250 260 264 271 283 300 251 334 322 293 297 274 270 255 250 246 241
222 220 254 273 271 266 253 253 242 263 273 192 271 277 273 274 273 272 271 276 278 279 287 269 285 307 351 335 322 302 299 292 272 257 251 238 243 236
245 274 260 187 247 256 263 223 258 235 292 279 275 292 286 282 282 289 296 257 257 366 372 364 348 349 333 319 317 291 292 271 259 251 230 245 235 230
262 265 145 262 260 262 260 285 292 267 290 160 139 265 265 305 261 296 369 373 380 370 351 344 347 328 312 296 307 292 269 258 251 236 238 237 233 227
263 259 262 266 292 287 290 277 296 252 260 302 298 312 309 309 345 342 341 376 359 359 360 327 312 305 298 303 281 265 257 251 239 239 239 228 227 223
265 265 269 278 278 271 264 251 294 272 304 306 306 277 293 314 322 308 308 311 334 322 319 310 295 296 278 276 259 252 257 247 238 240 224 227 226 224
270 261 266 283 245 251 255 310 297 297 292 302 294 291 287 297 306 293 290 309 295 296 285 289 290 270 277 259 247 260 247 238 244 228 227 225 216 222
271 271 264 279 309 313 247 260 290 282 290 286 279 285 279 292 306 295 293 284 313 291 276 287 285 273 251 248 255 245 241 242 233 228 228 225 218 212
248 263 279 292 266 301 293 283 281 283 280 279 272 274 278 294 288 279 282 278 289 271 272 264 262 257 242 248 250 242 235 244 232 226 225 222 223 213
270 269 312 299 290 290 291 279 279 274 269 277 267 265 270 282 272 275 281 279 271 273 266 270 254 256 252 248 243 240 235 239 238 223 223 223 217 210
265 317 290 284 278 275 275 267 283 301 265 272 268 268 263 267 275 267 275 282 260 261 259 261 249 255 251 242 241 251 246 247 238 225 227 226 213 227
296 285 281 276 267 262 289 277 305 289 260 263 265 256 253 258 265 257 266 272 260 254 242 251 253 242 237 237 243 241 241 241 220 229 220 232 215 218
278 274 262 264 260 276 271 269 289 283 272 263 261 254 253 255 247 249 255 265 258 262 255 242 251 238 244 237 246 251 232 234 235 236 222 226 223 224
274 256 250 292 306 287 263 276 286 278 269 272 262 255 258 249 254 247 245 252 244 242 263 260 247 237 240 242 252 240 235 226 216 225 231 233 231 230
256 264 283 281 285 272 255 269 274 280 266 264 259 263 254 258 251 244 247 240 247 250 237 239 248 243 238 226 229 237 239 242 218 221 233 226 232 229

GFSNE_2pvu_pres_117.txt.gz
Presure
191 152 170 191 148 185 167 145 186 176 172 153 178 168 166 152 172 186 185 190 136 190 195 118 183 196 221 228 194 212 182 203 196 173 212 223 228 241
189 174 178 176 188 190 158 169 165 206 139 172 170 144 182 181 143 190 191 183 184 195 180 190 146 190 184 216 202 180 214 199 206 216 222 221 236 246
194 191 163 189 186 153 186 192 154 192 189 192 192 185 193 186 165 201 184 192 182 181 178 186 187 180 201 194 211 216 225 212 220 226 219 235 248 306
192 184 174 140 186 201 186 179 192 169 175 184 204 177 183 198 201 199 174 178 180 194 178 185 186 212 194 211 234 222 220 215 224 226 233 251 254 275
176 146 157 200 198 179 184 190 190 187 161 169 181 204 192 194 207 192 163 161 238 211 228 255 247 243 234 240 240 231 232 230 234 241 252 254 295 255
179 172 181 194 172 183 161 189 200 185 172 192 199 188 200 209 199 227 259 276 264 249 232 259 246 256 256 249 244 244 241 253 253 255 261 268 283 290
180 183 173 191 205 180 172 192 201 183 202 200 198 202 218 217 221 257 265 269 227 262 267 264 265 264 265 258 253 260 264 257 280 266 245 258 301 285
186 182 188 205 178 171 183 186 187 215 196 200 211 220 249 155 246 274 248 290 273 270 291 293 296 302 292 301 300 283 271 243 245 302 314 295 296 282
195 179 179 190 191 191 201 176 182 193 207 182 208 236 181 253 280 296 310 273 286 285 281 287 268 274 264 259 315 315 323 328 328 314 292 280 287 250
175 182 164 209 185 190 184 196 206 217 221 249 248 242 277 305 309 275 325 127 268 279 300 314 322 324 344 357 350 329 329 322 318 303 311 284 272 257
188 201 198 179 174 194 201 204 206 220 274 278 236 285 303 281 297 297 267 314 296 307 301 332 356 363 384 358 348 335 321 319 311 308 286 264 263 243
200 189 200 200 197 168 222 216 206 235 205 246 291 285 272 329 305 314 313 311 305 312 330 320 364 354 340 331 326 315 312 301 290 293 259 267 250 241
216 210 205 205 214 235 240 275 194 263 248 280 279 277 319 277 309 311 302 298 299 296 310 302 351 380 336 315 302 295 298 280 292 280 266 253 240 232
200 192 214 236 234 244 254 249 276 268 275 271 271 306 302 303 282 303 295 292 286 314 289 318 293 314 307 309 305 292 290 289 273 258 254 241 234 229
217 225 199 214 224 213 251 276 264 277 253 262 311 316 245 299 295 292 281 282 281 311 293 289 299 292 281 278 275 287 263 265 256 251 245 240 228 230
231 241 257 262 277 266 268 268 278 277 267 313 308 303 298 293 285 288 279 272 293 304 279 279 291 279 283 285 288 258 264 254 244 252 245 234 233 231
286 282 268 259 272 265 269 268 254 280 263 302 292 291 285 285 283 276 274 272 278 276 280 289 272 269 279 279 267 263 255 246 247 249 238 233 234 228
260 260 272 265 260 255 264 265 245 317 300 291 286 282 283 298 292 270 272 268 271 283 284 277 267 259 271 258 258 249 246 238 249 248 239 229 238 233
267 260 254 268 269 270 280 258 276 290 287 278 277 275 279 304 288 264 254 264 255 282 276 290 271 269 259 269 256 245 248 241 242 248 241 233 234 242
263 268 261 259 276 256 267 256 288 284 271 271 267 284 274 292 283 270 262 262 255 259 262 261 273 255 256 253 261 243 247 251 243 234 242 243 235 239
266 261 255 256 271 266 252 282 285 268 267 307 299 277 272 284 276 275 267 264 256 254 253 260 271 256 251 243 239 252 246 235 228 231 233 230 231 236
250 265 273 265 252 266 281 281 262 254 275 284 287 273 258 272 278 272 267 263 257 256 249 251 243 259 251 254 250 239 242 237 239 231 248 240 227 237
271 259 269 275 269 281 279 272 258 255 287 277 262 272 255 250 274 275 262 265 259 251 253 247 242 239 239 245 262 262 247 242 239 238 232 244 242 239

GFSNE_2pvu_pres_120.txt.gz
Presure
203 188 162 174 151 198 172 187 161 187 159 133 208 193 157 181 158 133 142 189 180 165 170 159 204 201 213 222 160 248 159 244 230 241 227 231 228 235
214 184 192 157 183 176 147 192 157 158 183 177 192 142 151 211 185 175 189 195 173 184 203 190 201 209 190 253 254 251 228 238 245 245 254 235 248 242
189 140 161 188 207 158 190 198 182 179 150 197 200 169 172 204 169 191 176 187 184 202 202 205 196 206 233 193 275 236 254 259 245 247 241 245 248 243
136 150 189 182 156 188 179 201 138 198 189 198 153 158 202 179 189 182 203 193 202 208 209 202 221 228 222 282 254 264 267 263 262 259 256 278 244 244
144 186 172 201 152 182 198 211 202 164 201 148 168 193 186 178 183 186 183 183 206 206 217 228 282 245 286 280 276 276 255 295 264 269 266 268 259 258
173 182 180 181 191 179 179 181 188 193 193 173 184 205 182 191 207 208 186 217 206 205 209 202 225 297 326 304 296 288 286 269 262 276 281 266 278 249
192 181 180 175 144 192 189 183 202 195 203 176 201 198 195 209 208 204 216 103 218 216 248 261 302 269 322 324 274 272 252 261 278 262 268 267 305 251
200 172 180 201 185 188 169 200 183 183 144 201 210 195 187 188 200 225 225 162 153 239 241 264 304 325 284 126 316 303 305 309 308 298 294 296 314 309
186 191 202 178 188 181 172 189 181 201 184 198 194 195 208 190 209 216 203 222 220 253 227 336 336 331 319 318 317 316 312 315 321 320 308 309 314 304
180 187 178 162 191 193 181 156 184 204 184 194 207 205 199 202 192 198 208 230 224 227 321 304 326 316 313 314 319 328 326 341 351 337 315 303 310 297
193 182 190 178 202 196 190 194 187 201 198 205 168 205 201 203 217 191 285 248 211 300 319 318 314 309 307 310 315 335 359 357 331 320 315 306 301 284
192 202 189 178 195 203 194 171 182 197 201 168 185 197 197 203 228 228 258 216 303 320 312 315 304 301 294 308 325 336 326 324 318 309 303 299 288 287
186 194 175 208 180 193 187 188 209 192 196 215 202 214 180 221 289 219 258 291 300 310 306 301 296 290 311 301 315 334 317 310 309 304 298 298 287 277
190 193 183 189 174 195 188 209 211 184 214 217 196 206 218 212 225 248 294 284 298 316 299 291 287 282 312 295 291 291 304 293 297 295 289 287 270 271
212 209 211 204 203 200 205 173 204 203 204 190 211 274 248 235 274 212 280 270 305 298 292 287 281 277 311 279 282 283 277 282 266 282 300 271 268 255
195 206 206 208 203 204 209 202 203 209 210 281 246 268 278 297 301 285 307 303 302 292 286 269 276 275 283 275 280 272 268 272 285 281 272 263 252 245
204 191 202 203 205 212 201 269 220 238 240 247 268 279 275 300 297 291 295 293 293 287 309 276 274 271 267 302 273 269 268 288 269 251 260 254 247 239
206 204 212 212 212 284 256 211 235 264 266 251 272 279 275 269 295 301 291 282 285 283 300 277 266 270 260 281 265 263 261 273 256 258 255 248 239 231
250 312 268 276 299 258 244 259 272 266 277 265 280 275 257 287 269 288 281 267 290 281 299 279 271 265 255 278 271 263 261 256 262 256 250 252 237 239
263 267 286 265 264 271 269 246 273 268 275 255 272 267 271 257 289 276 270 300 285 275 288 284 276 263 255 250 267 263 263 264 258 246 249 238 247 238
276 277 272 271 253 252 256 258 263 260 271 270 273 267 276 290 282 270 261 281 279 266 253 281 276 266 261 255 249 253 253 254 255 253 247 240 244 248
274 264 273 268 262 261 265 265 253 273 260 275 262 272 275 284 282 263 257 289 269 270 257 260 273 273 260 253 257 249 247 263 253 246 240 243 245 243
270 263 254 261 265 272 254 266 264 267 267 262 273 284 286 281 272 262 280 298 272 263 268 260 267 267 265 259 251 251 247 246 242 239 246 253 241 241

GFSNE_2pvu_pres_123.txt.gz
Presure
141 127 140 139 125 181 149 193 188 184 148 187 133 138 150 137 211 127 205 192 156 181 196 202 204 186 193 203 199 230 233 231 253 273 254 271 260 250
125 177 171 176 220 141 173 188 132 196 166 164 144 188 206 150 196 199 186 136 154 184 186 196 188 179 194 203 209 230 227 233 288 273 269 265 266 267
179 179 163 123 180 178 208 196 133 192 185 180 154 187 211 192 199 160 197 175 193 194 183 192 202 191 213 191 194 233 255 311 289 305 306 278 287 294
175 179 177 164 193 177 190 175 195 201 187 179 177 201 187 173 208 176 181 206 195 193 187 199 196 200 214 222 218 239 219 263 240 299 290 280 263 281
145 178 186 178 178 198 178 194 195 194 181 199 164 196 204 197 191 173 200 212 206 181 197 194 196 215 196 229 230 267 264 321 305 313 273 193 285 271
183 178 168 182 186 186 203 205 206 197 192 182 184 200 198 180 187 204 203 216 213 205 206 199 202 206 229 239 231 295 337 191 320 313 312 308 308 297
170 135 169 195 192 202 190 194 185 187 178 198 199 208 189 201 200 179 203 175 189 169 207 209 186 225 216 240 231 241 229 327 317 310 306 301 301 296
187 169 172 197 204 203 184 180 197 175 181 178 188 195 160 198 195 197 203 171 178 190 203 202 217 221 231 230 240 316 270 248 312 308 303 305 301 296
168 173 184 196 187 203 183 179 193 186 178 193 179 197 195 203 191 187 200 190 184 200 207 170 220 225 232 226 328 253 255 310 306 313 311 302 321 330
199 179 193 200 180 199 195 189 183 182 170 175 198 194 182 188 203 183 207 202 217 216 184 218 215 260 297 278 275 256 307 302 313 308 335 345 349 325
176 189 170 194 199 202 178 180 170 184 175 171 193 194 205 195 177 193 208 207 213 211 224 198 276 229 220 264 281 304 298 319 338 317 365 347 329 314
195 173 179 198 189 186 198 188 168 182 181 184 199 182 195 195 205 196 188 199 184 182 211 221 311 319 260 258 303 297 285 302 345 330 327 329 313 298
205 180 191 190 185 185 180 194 189 193 179 183 197 190 194 199 186 211 191 202 195 202 217 226 228 296 261 304 293 290 286 295 290 298 293 316 308 296
173 166 166 157 189 179 174 183 191 176 193 175 190 175 178 200 192 217 178 204 196 218 234 281 263 227 308 310 288 278 281 283 285 290 282 294 295 295
203 200 204 190 187 170 200 197 194 191 183 193 188 200 189 175 218 197 202 226 261 225 281 315 259 309 292 278 293 276 277 279 278 283 279 271 258 289
177 205 202 185 205 195 194 193 192 174 194 206 187 195 196 207 192 227 225 239 226 282 294 312 312 300 283 319 291 276 275 284 286 284 272 269 286 276
188 191 189 193 185 202 217 197 195 195 193 204 192 199 223 235 233 249 231 278 271 281 274 306 302 305 299 305 285 273 271 271 290 279 269 289 278 288
203 198 205 222 198 214 215 204 200 208 220 213 211 231 271 244 265 254 274 271 265 275 290 301 293 281 298 299 287 274 263 263 276 262 268 281 266 251
214 215 221 213 215 196 212 202 235 203 306 185 294 240 221 279 271 278 257 275 275 274 287 270 289 277 290 279 293 272 262 261 258 272 261 269 258 252
227 217 224 271 300 301 223 271 284 238 245 249 277 276 266 273 253 259 283 267 271 275 277 293 288 273 277 281 263 281 272 259 251 254 264 258 260 255
278 298 256 268 280 283 288 274 277 274 255 272 269 265 265 266 263 274 269 272 278 268 282 292 286 268 259 280 272 254 279 268 257 250 249 256 258 258
266 273 278 283 276 279 272 283 277 269 268 266 266 265 264 262 274 270 272 274 268 285 290 288 281 261 274 286 267 271 253 276 265 256 251 250 254 245
269 269 268 265 268 272 265 264 264 267 267 264 263 261 272 254 265 270 274 264 271 282 289 277 266 273 269 287 266 261 268 257 273 263 255 252 244 245